Time,TemperatureF,DewpointF,PressureIn,WindDirection,WindDirectionDegrees,WindSpeedMPH,WindSpeedGustMPH,Humidity,HourlyPrecipIn,Conditions,Clouds,dailyrainin,SoftwareType,DateUTC
2013-05-28 00:00:00,71.1,24.0,28.16,SE,135,0.0,0.0,17,0.00,CLR,SKC,0.00,WeatherDisplay:10.37,2013-05-28 04:00:00,
2013-05-28 00:01:00,71.1,24.0,28.16,SE,135,0.0,0.0,17,0.00,CLR,SKC,0.00,WeatherDisplay:10.37,2013-05-28 04:01:00,
2013-05-28 00:02:00,71.1,24.0,28.17,SE,135,0.0,0.0,17,0.00,CLR,SKC,0.00,WeatherDisplay:10.37,2013-05-28 04:02:00,
2013-05-28 00:06:00,71.1,24.0,28.16,SE,135,0.0,0.0,17,0.00,CLR,SKC,0.00,WeatherDisplay:10.37,2013-05-28 04:06:00,
2013-05-28 00:07:00,71.1,24.0,28.17,SE,135,0.0,0.0,17,0.00,CLR,SKC,0.00,WeatherDisplay:10.37,2013-05-28 04:07:00,
2013-05-28 00:11:00,71.6,23.0,28.16,SE,135,0.0,0.0,16,0.00,CLR,SKC,0.00,WeatherDisplay:10.37,2013-05-28 04:11:00,
2013-05-28 00:12:00,71.6,21.5,28.16,SE,135,0.0,0.0,15,0.00,CLR,SKC,0.00,WeatherDisplay:10.37,2013-05-28 04:12:00,
2013-05-28 00:16:00,71.8,20.0,28.16,SE,135,0.0,0.0,14,0.00,CLR,SKC,0.00,WeatherDisplay:10.37,2013-05-28 04:16:00,
2013-05-28 00:17:00,71.8,20.0,28.17,SE,135,0.0,0.0,14,0.00,CLR,SKC,0.00,WeatherDisplay:10.37,2013-05-28 04:17:00,
2013-05-28 00:21:00,71.8,21.6,28.16,SE,135,0.0,0.0,15,0.00,CLR,SKC,0.00,WeatherDisplay:10.37,2013-05-28 04:21:00,
2013-05-28 00:22:00,71.8,20.0,28.16,SE,135,0.0,0.0,14,0.00,CLR,SKC,0.00,WeatherDisplay:10.37,2013-05-28 04:22:00,
2013-05-28 00:26:00,71.4,21.3,28.16,SE,135,0.0,0.0,15,0.00,CLR,SKC,0.00,WeatherDisplay:10.37,2013-05-28 04:26:00,
2013-05-28 00:27:00,71.4,21.3,28.16,South,180,0.0,0.0,15,0.00,CLR,SKC,0.00,WeatherDisplay:10.37,2013-05-28 04:27:00,
2013-05-28 00:31:00,71.6,23.0,28.16,SE,135,0.0,0.0,16,0.00,CLR,SKC,0.00,WeatherDisplay:10.37,2013-05-28 04:31:00,
2013-05-28 00:32:00,71.6,21.5,28.16,SE,135,0.0,0.0,15,0.00,CLR,SKC,0.00,WeatherDisplay:10.37,2013-05-28 04:32:00,
2013-05-28 00:33:00,71.6,21.5,28.16,SE,135,0.0,0.0,15,0.00,CLR,SKC,0.00,WeatherDisplay:10.37,2013-05-28 04:33:00,
2013-05-28 00:37:00,71.4,21.3,28.16,South,180,0.0,0.0,15,0.00,CLR,SKC,0.00,WeatherDisplay:10.37,2013-05-28 04:37:00,
2013-05-28 00:38:00,71.4,21.3,28.16,SE,135,0.0,0.0,15,0.00,CLR,SKC,0.00,WeatherDisplay:10.37,2013-05-28 04:38:00,
2013-05-28 00:42:00,71.6,19.8,28.16,SE,135,0.0,0.0,14,0.00,CLR,SKC,0.00,WeatherDisplay:10.37,2013-05-28 04:42:00,
2013-05-28 00:43:00,71.6,19.8,28.16,SE,135,0.0,0.0,14,0.00,CLR,SKC,0.00,WeatherDisplay:10.37,2013-05-28 04:43:00,
2013-05-28 00:47:00,71.6,21.5,28.17,SE,135,0.0,0.0,15,0.00,CLR,SKC,0.00,WeatherDisplay:10.37,2013-05-28 04:47:00,
2013-05-28 00:48:00,71.6,21.5,28.17,SE,135,0.0,0.0,15,0.00,CLR,SKC,0.00,WeatherDisplay:10.37,2013-05-28 04:48:00,
2013-05-28 00:52:00,71.4,22.8,28.17,SE,135,0.0,0.0,16,0.00,CLR,SKC,0.00,WeatherDisplay:10.37,2013-05-28 04:52:00,
2013-05-28 00:53:00,71.4,21.3,28.16,SE,135,0.0,0.0,15,0.00,CLR,SKC,0.00,WeatherDisplay:10.37,2013-05-28 04:53:00,
2013-05-28 00:54:00,71.4,22.8,28.17,SE,135,0.0,0.0,16,0.00,CLR,SKC,0.00,WeatherDisplay:10.37,2013-05-28 04:54:00,
2013-05-28 00:58:00,71.1,22.6,28.17,SE,135,0.0,0.0,16,0.00,CLR,SKC,0.00,WeatherDisplay:10.37,2013-05-28 04:58:00,
2013-05-28 00:59:00,71.1,25.4,28.17,SE,135,0.0,0.0,18,0.00,CLR,SKC,0.00,WeatherDisplay:10.37,2013-05-28 04:59:00,
2013-05-28 01:03:00,70.9,23.9,28.16,SE,135,0.0,0.0,17,0.00,CLR,SKC,0.00,WeatherDisplay:10.37,2013-05-28 05:03:00,
2013-05-28 01:04:00,70.9,23.9,28.17,SE,135,0.0,0.0,17,0.00,CLR,SKC,0.00,WeatherDisplay:10.37,2013-05-28 05:04:00,
2013-05-28 01:08:00,71.2,24.1,28.17,SE,135,0.0,0.0,17,0.00,CLR,SKC,0.00,WeatherDisplay:10.37,2013-05-28 05:08:00,
2013-05-28 01:09:00,71.2,24.1,28.17,SE,135,0.0,0.0,17,0.00,CLR,SKC,0.00,WeatherDisplay:10.37,2013-05-28 05:09:00,
2013-05-28 01:10:00,71.2,22.7,28.17,South,180,0.0,0.0,16,0.00,CLR,SKC,0.00,WeatherDisplay:10.37,2013-05-28 05:10:00,
2013-05-28 01:13:00,71.4,21.3,28.16,SE,135,5.8,0.0,15,0.00,CLR,SKC,0.00,WeatherDisplay:10.37,2013-05-28 05:13:00,
2013-05-28 01:14:00,71.4,22.8,28.16,SE,135,0.0,0.0,16,0.00,CLR,SKC,0.00,WeatherDisplay:10.37,2013-05-28 05:14:00,
2013-05-28 01:15:00,71.4,21.3,28.17,SE,135,0.0,0.0,15,0.00,CLR,SKC,0.00,WeatherDisplay:10.37,2013-05-28 05:15:00,
2013-05-28 01:16:00,71.4,21.3,28.17,SE,135,0.0,0.0,15,0.00,CLR,SKC,0.00,WeatherDisplay:10.37,2013-05-28 05:16:00,
2013-05-28 01:18:00,71.4,22.8,28.17,SE,135,0.0,0.0,16,0.00,CLR,SKC,0.00,WeatherDisplay:10.37,2013-05-28 05:18:00,
2013-05-28 01:19:00,71.4,22.8,28.17,SE,135,0.0,0.0,16,0.00,CLR,SKC,0.00,WeatherDisplay:10.37,2013-05-28 05:19:00,
2013-05-28 01:20:00,71.4,22.8,28.17,SE,135,0.0,0.0,16,0.00,CLR,SKC,0.00,WeatherDisplay:10.37,2013-05-28 05:20:00,
2013-05-28 01:21:00,71.4,24.3,28.16,SE,135,0.0,0.0,17,0.00,CLR,SKC,0.00,WeatherDisplay:10.37,2013-05-28 05:21:00,
2013-05-28 01:23:00,71.2,22.7,28.16,SE,135,0.0,0.0,16,0.00,CLR,SKC,0.00,WeatherDisplay:10.37,2013-05-28 05:23:00,
2013-05-28 01:24:00,71.2,24.1,28.16,SE,135,0.0,0.0,17,0.00,CLR,SKC,0.00,WeatherDisplay:10.37,2013-05-28 05:24:00,
2013-05-28 01:26:00,71.2,24.1,28.16,SE,135,0.0,0.0,17,0.00,CLR,SKC,0.00,WeatherDisplay:10.37,2013-05-28 05:26:00,
2013-05-28 01:28:00,71.1,25.4,28.16,SE,135,0.0,0.0,18,0.00,CLR,SKC,0.00,WeatherDisplay:10.37,2013-05-28 05:28:00,
2013-05-28 01:29:00,71.1,25.4,28.16,SE,135,0.0,0.0,18,0.00,CLR,SKC,0.00,WeatherDisplay:10.37,2013-05-28 05:29:00,
2013-05-28 01:30:00,71.1,25.4,28.16,SE,135,0.0,0.0,18,0.00,CLR,SKC,0.00,WeatherDisplay:10.37,2013-05-28 05:30:00,
2013-05-28 01:31:00,71.1,25.4,28.17,SE,135,0.0,0.0,18,0.00,CLR,SKC,0.00,WeatherDisplay:10.37,2013-05-28 05:31:00,
2013-05-28 01:32:00,71.1,25.4,28.16,SE,135,0.0,0.0,18,0.00,CLR,SKC,0.00,WeatherDisplay:10.37,2013-05-28 05:32:00,
2013-05-28 01:33:00,71.2,24.1,28.17,SE,135,0.0,0.0,17,0.00,CLR,SKC,0.00,WeatherDisplay:10.37,2013-05-28 05:33:00,
2013-05-28 01:34:00,71.2,25.5,28.17,SE,135,0.0,0.0,18,0.00,CLR,SKC,0.00,WeatherDisplay:10.37,2013-05-28 05:34:00,
2013-05-28 01:35:00,71.2,25.5,28.17,SE,135,0.0,0.0,18,0.00,CLR,SKC,0.00,WeatherDisplay:10.37,2013-05-28 05:35:00,
2013-05-28 01:36:00,71.2,24.1,28.16,SE,135,0.0,0.0,17,0.00,CLR,SKC,0.00,WeatherDisplay:10.37,2013-05-28 05:36:00,
2013-05-28 01:37:00,71.2,24.1,28.16,South,180,0.0,0.0,17,0.00,CLR,SKC,0.00,WeatherDisplay:10.37,2013-05-28 05:37:00,
2013-05-28 01:39:00,71.4,24.3,28.17,SE,135,0.0,0.0,17,0.00,CLR,SKC,0.00,WeatherDisplay:10.37,2013-05-28 05:39:00,
2013-05-28 01:40:00,71.4,22.8,28.16,SE,135,0.0,0.0,16,0.00,CLR,SKC,0.00,WeatherDisplay:10.37,2013-05-28 05:40:00,
2013-05-28 01:42:00,71.4,22.8,28.17,South,180,0.0,0.0,16,0.00,CLR,SKC,0.00,WeatherDisplay:10.37,2013-05-28 05:42:00,
2013-05-28 01:44:00,71.6,24.4,28.17,SE,135,0.0,0.0,17,0.00,CLR,SKC,0.00,WeatherDisplay:10.37,2013-05-28 05:44:00,
2013-05-28 01:45:00,71.4,24.3,28.16,SE,135,0.0,0.0,17,0.00,CLR,SKC,0.00,WeatherDisplay:10.37,2013-05-28 05:45:00,
2013-05-28 01:47:00,71.4,24.3,28.16,SE,135,0.0,0.0,17,0.00,CLR,SKC,0.00,WeatherDisplay:10.37,2013-05-28 05:47:00,
2013-05-28 01:49:00,71.4,24.3,28.17,SE,135,0.0,0.0,17,0.00,CLR,SKC,0.00,WeatherDisplay:10.37,2013-05-28 05:49:00,
2013-05-28 01:50:00,71.4,24.3,28.16,SE,135,0.0,0.0,17,0.00,CLR,SKC,0.00,WeatherDisplay:10.37,2013-05-28 05:50:00,
2013-05-28 01:51:00,71.4,24.3,28.16,SE,135,0.0,0.0,17,0.00,CLR,SKC,0.00,WeatherDisplay:10.37,2013-05-28 05:51:00,
2013-05-28 01:52:00,71.4,24.3,28.16,SE,135,0.0,0.0,17,0.00,CLR,SKC,0.00,WeatherDisplay:10.37,2013-05-28 05:52:00,
2013-05-28 01:54:00,71.4,24.3,28.16,South,180,0.0,0.0,17,0.00,CLR,SKC,0.00,WeatherDisplay:10.37,2013-05-28 05:54:00,
2013-05-28 01:55:00,71.4,24.3,28.16,SE,135,0.0,0.0,17,0.00,CLR,SKC,0.00,WeatherDisplay:10.37,2013-05-28 05:55:00,
2013-05-28 01:56:00,71.4,24.3,28.16,SE,135,0.0,0.0,17,0.00,CLR,SKC,0.00,WeatherDisplay:10.37,2013-05-28 05:56:00,
2013-05-28 01:57:00,71.4,24.3,28.15,SE,135,0.0,0.0,17,0.00,CLR,SKC,0.00,WeatherDisplay:10.37,2013-05-28 05:57:00,
2013-05-28 02:00:00,71.4,24.3,28.15,SE,144,0.0,1.0,17,0.00,CLR,SKC,0.00,WeatherDisplay:10.37,2013-05-28 06:00:00,
2013-05-28 02:01:00,71.4,25.7,28.16,SE,135,1.1,0.0,18,0.00,CLR,SKC,0.00,WeatherDisplay:10.37,2013-05-28 06:01:00,
2013-05-28 02:02:00,71.4,25.7,28.15,SE,135,0.0,0.0,18,0.00,CLR,SKC,0.00,WeatherDisplay:10.37,2013-05-28 06:02:00,
2013-05-28 02:05:00,71.4,25.7,28.15,SE,135,0.0,0.0,18,0.00,CLR,SKC,0.00,WeatherDisplay:10.37,2013-05-28 06:05:00,
2013-05-28 02:06:00,71.4,25.7,28.15,SE,135,0.0,0.0,18,0.00,CLR,SKC,0.00,WeatherDisplay:10.37,2013-05-28 06:06:00,
2013-05-28 02:07:00,71.4,25.7,28.15,SE,135,0.0,0.0,18,0.00,CLR,SKC,0.00,WeatherDisplay:10.37,2013-05-28 06:07:00,
2013-05-28 02:10:00,71.2,26.8,28.15,SE,135,1.1,0.0,19,0.00,CLR,SKC,0.00,WeatherDisplay:10.37,2013-05-28 06:10:00,
2013-05-28 02:11:00,71.2,26.8,28.15,SE,135,0.0,0.0,19,0.00,CLR,SKC,0.00,WeatherDisplay:10.37,2013-05-28 06:11:00,
2013-05-28 02:12:00,71.2,26.8,28.15,SE,135,0.0,0.0,19,0.00,CLR,SKC,0.00,WeatherDisplay:10.37,2013-05-28 06:12:00,
2013-05-28 02:13:00,71.1,26.7,28.15,SE,135,0.0,0.0,19,0.00,CLR,SKC,0.00,WeatherDisplay:10.37,2013-05-28 06:13:00,
2013-05-28 02:15:00,71.1,27.9,28.15,SE,135,0.0,0.0,20,0.00,CLR,SKC,0.00,WeatherDisplay:10.37,2013-05-28 06:15:00,
2013-05-28 02:17:00,71.1,27.9,28.15,SE,135,0.0,0.0,20,0.00,CLR,SKC,0.00,WeatherDisplay:10.37,2013-05-28 06:17:00,
2013-05-28 02:18:00,70.9,27.8,28.15,SE,135,0.0,0.0,20,0.00,CLR,SKC,0.00,WeatherDisplay:10.37,2013-05-28 06:18:00,
2013-05-28 02:20:00,70.9,27.8,28.15,South,180,0.0,0.0,20,0.00,CLR,SKC,0.00,WeatherDisplay:10.37,2013-05-28 06:20:00,
2013-05-28 02:22:00,71.1,29.1,28.15,SE,135,0.0,0.0,21,0.00,CLR,SKC,0.00,WeatherDisplay:10.37,2013-05-28 06:22:00,
2013-05-28 02:23:00,71.1,27.9,28.14,SE,135,0.0,0.0,20,0.00,CLR,SKC,0.00,WeatherDisplay:10.37,2013-05-28 06:23:00,
2013-05-28 02:25:00,71.1,27.9,28.15,SE,135,0.0,0.0,20,0.00,CLR,SKC,0.00,WeatherDisplay:10.37,2013-05-28 06:25:00,
2013-05-28 02:27:00,71.1,29.1,28.14,SE,135,0.0,0.0,21,0.00,CLR,SKC,0.00,WeatherDisplay:10.37,2013-05-28 06:27:00,
2013-05-28 02:28:00,71.1,29.1,28.15,SE,135,0.0,0.0,21,0.00,CLR,SKC,0.00,WeatherDisplay:10.37,2013-05-28 06:28:00,
2013-05-28 02:30:00,71.1,27.9,28.15,SE,135,0.0,0.0,20,0.00,CLR,SKC,0.00,WeatherDisplay:10.37,2013-05-28 06:30:00,
2013-05-28 02:32:00,71.1,27.9,28.14,South,180,0.0,0.0,20,0.00,CLR,SKC,0.00,WeatherDisplay:10.37,2013-05-28 06:32:00,
2013-05-28 02:33:00,71.1,27.9,28.15,SE,135,0.0,0.0,20,0.00,CLR,SKC,0.00,WeatherDisplay:10.37,2013-05-28 06:33:00,
2013-05-28 02:36:00,71.2,28.1,28.15,SE,135,0.0,0.0,20,0.00,CLR,SKC,0.00,WeatherDisplay:10.37,2013-05-28 06:36:00,
2013-05-28 02:37:00,71.1,27.9,28.15,SE,135,0.0,0.0,20,0.00,CLR,SKC,0.00,WeatherDisplay:10.37,2013-05-28 06:37:00,
2013-05-28 02:38:00,71.1,27.9,28.15,SE,135,0.0,0.0,20,0.00,CLR,SKC,0.00,WeatherDisplay:10.37,2013-05-28 06:38:00,
2013-05-28 02:39:00,71.1,27.9,28.15,SE,135,0.0,0.0,20,0.00,CLR,SKC,0.00,WeatherDisplay:10.37,2013-05-28 06:39:00,
2013-05-28 02:41:00,71.1,27.9,28.15,SE,135,0.0,0.0,20,0.00,CLR,SKC,0.00,WeatherDisplay:10.37,2013-05-28 06:41:00,
2013-05-28 02:43:00,71.1,29.1,28.15,SE,135,0.0,0.0,21,0.00,CLR,SKC,0.00,WeatherDisplay:10.37,2013-05-28 06:43:00,
2013-05-28 02:44:00,71.1,29.1,28.14,South,180,0.0,0.0,21,0.00,CLR,SKC,0.00,WeatherDisplay:10.37,2013-05-28 06:44:00,
2013-05-28 02:46:00,70.9,29.0,28.15,SE,135,1.1,0.0,21,0.00,CLR,SKC,0.00,WeatherDisplay:10.37,2013-05-28 06:46:00,
2013-05-28 02:48:00,70.9,29.0,28.14,SE,135,0.0,0.0,21,0.00,CLR,SKC,0.00,WeatherDisplay:10.37,2013-05-28 06:48:00,
2013-05-28 02:50:00,70.9,29.0,28.15,SE,135,0.0,0.0,21,0.00,CLR,SKC,0.00,WeatherDisplay:10.37,2013-05-28 06:50:00,
2013-05-28 02:51:00,70.9,29.0,28.15,SE,135,0.0,0.0,21,0.00,CLR,SKC,0.00,WeatherDisplay:10.37,2013-05-28 06:51:00,
2013-05-28 02:53:00,70.9,29.0,28.15,South,180,0.0,0.0,21,0.00,CLR,SKC,0.00,WeatherDisplay:10.37,2013-05-28 06:53:00,
2013-05-28 02:54:00,70.9,29.0,28.15,South,180,0.0,0.0,21,0.00,CLR,SKC,0.00,WeatherDisplay:10.37,2013-05-28 06:54:00,
2013-05-28 02:55:00,70.9,30.1,28.14,SE,135,0.0,0.0,22,0.00,CLR,SKC,0.00,WeatherDisplay:10.37,2013-05-28 06:55:00,
2013-05-28 02:56:00,70.7,30.0,28.14,SE,135,0.0,0.0,22,0.00,CLR,SKC,0.00,WeatherDisplay:10.37,2013-05-28 06:56:00,
2013-05-28 02:58:00,70.7,30.0,28.14,SE,135,0.0,0.0,22,0.00,CLR,SKC,0.00,WeatherDisplay:10.37,2013-05-28 06:58:00,
2013-05-28 02:59:00,70.7,30.0,28.14,SE,135,0.0,0.0,22,0.00,CLR,SKC,0.00,WeatherDisplay:10.37,2013-05-28 06:59:00,
2013-05-28 03:00:00,70.7,31.1,28.14,South,180,0.0,0.0,23,0.00,CLR,SKC,0.00,WeatherDisplay:10.37,2013-05-28 07:00:00,
2013-05-28 03:01:00,70.7,31.1,28.14,South,180,0.0,0.0,23,0.00,CLR,SKC,0.00,WeatherDisplay:10.37,2013-05-28 07:01:00,
2013-05-28 03:03:00,70.7,31.1,28.14,South,180,0.0,0.0,23,0.00,CLR,SKC,0.00,WeatherDisplay:10.37,2013-05-28 07:03:00,
2013-05-28 03:04:00,70.7,31.1,28.14,South,180,0.0,0.0,23,0.00,CLR,SKC,0.00,WeatherDisplay:10.37,2013-05-28 07:04:00,
2013-05-28 03:05:00,70.7,31.1,28.14,South,180,0.0,0.0,23,0.00,CLR,SKC,0.00,WeatherDisplay:10.37,2013-05-28 07:05:00,
2013-05-28 03:06:00,70.7,31.1,28.14,South,180,0.0,0.0,23,0.00,CLR,SKC,0.00,WeatherDisplay:10.37,2013-05-28 07:06:00,
2013-05-28 03:09:00,70.5,30.9,28.14,SE,135,0.0,0.0,23,0.00,CLR,SKC,0.00,WeatherDisplay:10.37,2013-05-28 07:09:00,
2013-05-28 03:10:00,70.7,31.1,28.14,SE,135,0.0,0.0,23,0.00,CLR,SKC,0.00,WeatherDisplay:10.37,2013-05-28 07:10:00,
2013-05-28 03:11:00,70.7,31.1,28.14,SE,135,0.0,0.0,23,0.00,CLR,SKC,0.00,WeatherDisplay:10.37,2013-05-28 07:11:00,
2013-05-28 03:14:00,70.7,31.1,28.13,SE,135,0.0,0.0,23,0.00,CLR,SKC,0.00,WeatherDisplay:10.37,2013-05-28 07:14:00,
2013-05-28 03:15:00,70.7,31.1,28.14,SE,135,0.0,0.0,23,0.00,CLR,SKC,0.00,WeatherDisplay:10.37,2013-05-28 07:15:00,
2013-05-28 03:17:00,70.7,31.1,28.14,SE,135,0.0,0.0,23,0.00,CLR,SKC,0.00,WeatherDisplay:10.37,2013-05-28 07:17:00,
2013-05-28 03:19:00,70.7,31.1,28.14,SE,135,0.0,0.0,23,0.00,CLR,SKC,0.00,WeatherDisplay:10.37,2013-05-28 07:19:00,
2013-05-28 03:20:00,70.7,31.1,28.14,SE,135,0.0,0.0,23,0.00,CLR,SKC,0.00,WeatherDisplay:10.37,2013-05-28 07:20:00,
2013-05-28 03:21:00,70.7,32.1,28.14,SE,135,0.0,0.0,24,0.00,CLR,SKC,0.00,WeatherDisplay:10.37,2013-05-28 07:21:00,
2013-05-28 03:22:00,70.5,32.0,28.14,SE,135,0.0,0.0,24,0.00,CLR,SKC,0.00,WeatherDisplay:10.37,2013-05-28 07:22:00,
2013-05-28 03:24:00,70.5,32.0,28.14,SE,135,0.0,0.0,24,0.00,CLR,SKC,0.00,WeatherDisplay:10.37,2013-05-28 07:24:00,
2013-05-28 03:25:00,70.5,32.0,28.14,SE,135,0.0,0.0,24,0.00,CLR,SKC,0.00,WeatherDisplay:10.37,2013-05-28 07:25:00,
2013-05-28 03:26:00,70.7,31.1,28.14,South,180,1.1,0.0,23,0.00,CLR,SKC,0.00,WeatherDisplay:10.37,2013-05-28 07:26:00,
2013-05-28 03:27:00,70.7,32.1,28.14,SE,135,1.1,0.0,24,0.00,CLR,SKC,0.00,WeatherDisplay:10.37,2013-05-28 07:27:00,
2013-05-28 03:30:00,70.9,32.3,28.15,SE,135,0.0,0.0,24,0.00,CLR,SKC,0.00,WeatherDisplay:10.37,2013-05-28 07:30:00,
2013-05-28 03:31:00,70.7,32.1,28.14,SE,135,0.0,0.0,24,0.00,CLR,SKC,0.00,WeatherDisplay:10.37,2013-05-28 07:31:00,
2013-05-28 03:32:00,70.7,31.1,28.15,SE,135,0.0,0.0,23,0.00,CLR,SKC,0.00,WeatherDisplay:10.37,2013-05-28 07:32:00,
2013-05-28 03:35:00,70.5,32.0,28.14,SE,135,0.0,0.0,24,0.00,CLR,SKC,0.00,WeatherDisplay:10.37,2013-05-28 07:35:00,
2013-05-28 03:36:00,70.3,31.8,28.14,SE,135,0.0,0.0,24,0.00,CLR,SKC,0.00,WeatherDisplay:10.37,2013-05-28 07:36:00,
2013-05-28 03:37:00,70.3,31.8,28.14,SE,135,0.0,0.0,24,0.00,CLR,SKC,0.00,WeatherDisplay:10.37,2013-05-28 07:37:00,
2013-05-28 03:40:00,70.2,33.7,28.14,South,180,0.0,0.0,26,0.00,CLR,SKC,0.00,WeatherDisplay:10.37,2013-05-28 07:40:00,
2013-05-28 03:42:00,70.2,34.6,28.14,SE,135,0.0,0.0,27,0.00,CLR,SKC,0.00,WeatherDisplay:10.37,2013-05-28 07:42:00,
2013-05-28 03:45:00,70.0,34.4,28.14,SE,135,0.0,0.0,27,0.00,CLR,SKC,0.00,WeatherDisplay:10.37,2013-05-28 07:45:00,
2013-05-28 03:46:00,70.0,34.4,28.14,SE,135,0.0,0.0,27,0.00,CLR,SKC,0.00,WeatherDisplay:10.37,2013-05-28 07:46:00,
2013-05-28 03:48:00,70.0,33.5,28.14,South,180,0.0,0.0,26,0.00,CLR,SKC,0.00,WeatherDisplay:10.37,2013-05-28 07:48:00,
2013-05-28 03:50:00,70.2,34.6,28.13,SE,135,0.0,0.0,27,0.00,CLR,SKC,0.00,WeatherDisplay:10.37,2013-05-28 07:50:00,
2013-05-28 03:51:00,70.2,33.7,28.13,South,180,1.1,0.0,26,0.00,CLR,SKC,0.00,WeatherDisplay:10.37,2013-05-28 07:51:00,
2013-05-28 03:53:00,70.3,34.8,28.13,SE,135,0.0,0.0,27,0.00,CLR,SKC,0.00,WeatherDisplay:10.37,2013-05-28 07:53:00,
2013-05-28 03:56:00,70.2,33.7,28.13,SE,135,0.0,0.0,26,0.00,CLR,SKC,0.00,WeatherDisplay:10.37,2013-05-28 07:56:00,
2013-05-28 03:58:00,70.2,34.6,28.13,South,180,0.0,0.0,27,0.00,CLR,SKC,0.00,WeatherDisplay:10.37,2013-05-28 07:58:00,
2013-05-28 04:01:00,70.2,34.6,28.13,SE,135,5.8,0.0,27,0.00,CLR,SKC,0.00,WeatherDisplay:10.37,2013-05-28 08:01:00,
2013-05-28 04:02:00,70.2,34.6,28.13,SE,135,1.1,0.0,27,0.00,CLR,SKC,0.00,WeatherDisplay:10.37,2013-05-28 08:02:00,
2013-05-28 04:03:00,70.2,34.6,28.13,SE,135,1.1,0.0,27,0.00,CLR,SKC,0.00,WeatherDisplay:10.37,2013-05-28 08:03:00,
2013-05-28 04:06:00,70.2,34.6,28.13,SE,135,1.1,0.0,27,0.00,CLR,SKC,0.00,WeatherDisplay:10.37,2013-05-28 08:06:00,
2013-05-28 04:07:00,70.2,34.6,28.14,SE,135,1.1,0.0,27,0.00,CLR,SKC,0.00,WeatherDisplay:10.37,2013-05-28 08:07:00,
2013-05-28 04:08:00,70.5,33.0,28.13,South,180,1.1,0.0,25,0.00,CLR,SKC,0.00,WeatherDisplay:10.37,2013-05-28 08:08:00,
2013-05-28 04:09:00,70.5,32.0,28.13,South,180,1.1,0.0,24,0.00,CLR,SKC,0.00,WeatherDisplay:10.37,2013-05-28 08:09:00,
2013-05-28 04:12:00,70.7,31.1,28.14,SE,135,1.1,0.0,23,0.00,CLR,SKC,0.00,WeatherDisplay:10.37,2013-05-28 08:12:00,
2013-05-28 04:13:00,70.9,31.2,28.14,SE,135,3.5,0.0,23,0.00,CLR,SKC,0.00,WeatherDisplay:10.37,2013-05-28 08:13:00,
2013-05-28 04:15:00,70.9,31.2,28.14,SE,135,3.5,0.0,23,0.00,CLR,SKC,0.00,WeatherDisplay:10.37,2013-05-28 08:15:00,
2013-05-28 04:17:00,70.9,30.1,28.14,SE,135,4.6,0.0,22,0.00,CLR,SKC,0.00,WeatherDisplay:10.37,2013-05-28 08:17:00,
2013-05-28 04:19:00,71.1,30.3,28.14,South,180,3.5,0.0,22,0.00,CLR,SKC,0.00,WeatherDisplay:10.37,2013-05-28 08:19:00,
2013-05-28 04:20:00,71.1,30.3,28.13,South,180,3.5,0.0,22,0.00,CLR,SKC,0.00,WeatherDisplay:10.37,2013-05-28 08:20:00,
2013-05-28 04:22:00,71.1,32.4,28.14,SE,135,0.0,0.0,24,0.00,CLR,SKC,0.00,WeatherDisplay:10.37,2013-05-28 08:22:00,
2013-05-28 04:23:00,70.9,31.2,28.13,SE,135,0.0,0.0,23,0.00,CLR,SKC,0.00,WeatherDisplay:10.37,2013-05-28 08:23:00,
2013-05-28 04:24:00,70.7,31.1,28.13,SE,135,0.0,0.0,23,0.00,CLR,SKC,0.00,WeatherDisplay:10.37,2013-05-28 08:24:00,
2013-05-28 04:25:00,70.7,31.1,28.13,SE,135,0.0,0.0,23,0.00,CLR,SKC,0.00,WeatherDisplay:10.37,2013-05-28 08:25:00,
2013-05-28 04:27:00,70.7,31.1,28.13,SE,135,4.6,4.6,23,0.00,CLR,SKC,0.00,WeatherDisplay:10.37,2013-05-28 08:27:00,
2013-05-28 04:28:00,70.7,30.0,28.14,SSE,158,4.6,0.0,22,0.00,CLR,SKC,0.00,WeatherDisplay:10.37,2013-05-28 08:28:00,
2013-05-28 04:30:00,70.7,30.0,28.14,SE,135,0.0,0.0,22,0.00,CLR,SKC,0.00,WeatherDisplay:10.37,2013-05-28 08:30:00,
2013-05-28 04:32:00,70.7,33.1,28.14,SE,135,0.0,0.0,25,0.00,CLR,SKC,0.00,WeatherDisplay:10.37,2013-05-28 08:32:00,
2013-05-28 04:33:00,70.7,33.1,28.14,SE,135,0.0,0.0,25,0.00,CLR,SKC,0.00,WeatherDisplay:10.37,2013-05-28 08:33:00,
2013-05-28 04:35:00,70.3,31.8,28.14,SE,135,1.1,0.0,24,0.00,CLR,SKC,0.00,WeatherDisplay:10.37,2013-05-28 08:35:00,
2013-05-28 04:36:00,70.3,31.8,28.14,SE,135,0.0,0.0,24,0.00,CLR,SKC,0.00,WeatherDisplay:10.37,2013-05-28 08:36:00,
2013-05-28 04:37:00,70.3,31.8,28.14,South,180,0.0,0.0,24,0.00,CLR,SKC,0.00,WeatherDisplay:10.37,2013-05-28 08:37:00,
2013-05-28 04:38:00,70.3,32.8,28.14,SE,135,0.0,0.0,25,0.00,CLR,SKC,0.00,WeatherDisplay:10.37,2013-05-28 08:38:00,
2013-05-28 04:40:00,70.3,31.8,28.14,SE,135,0.0,0.0,24,0.00,CLR,SKC,0.00,WeatherDisplay:10.37,2013-05-28 08:40:00,
2013-05-28 04:42:00,70.3,31.8,28.14,SE,135,0.0,0.0,24,0.00,CLR,SKC,0.00,WeatherDisplay:10.37,2013-05-28 08:42:00,
2013-05-28 04:43:00,70.2,32.7,28.14,SE,135,0.0,0.0,25,0.00,CLR,SKC,0.00,WeatherDisplay:10.37,2013-05-28 08:43:00,
2013-05-28 04:44:00,70.2,31.7,28.15,SE,135,0.0,0.0,24,0.00,CLR,SKC,0.00,WeatherDisplay:10.37,2013-05-28 08:44:00,
2013-05-28 04:45:00,70.2,32.7,28.14,SE,135,0.0,0.0,25,0.00,CLR,SKC,0.00,WeatherDisplay:10.37,2013-05-28 08:45:00,
2013-05-28 04:47:00,70.2,32.7,28.14,SE,135,0.0,0.0,25,0.00,CLR,SKC,0.00,WeatherDisplay:10.37,2013-05-28 08:47:00,
2013-05-28 04:48:00,70.0,32.5,28.14,SE,135,0.0,0.0,25,0.00,CLR,SKC,0.00,WeatherDisplay:10.37,2013-05-28 08:48:00,
2013-05-28 04:49:00,70.0,32.5,28.14,SE,135,0.0,0.0,25,0.00,CLR,SKC,0.00,WeatherDisplay:10.37,2013-05-28 08:49:00,
2013-05-28 04:50:00,70.0,32.5,28.14,SE,135,0.0,0.0,25,0.00,CLR,SKC,0.00,WeatherDisplay:10.37,2013-05-28 08:50:00,
2013-05-28 04:52:00,69.8,34.3,28.15,SE,135,0.0,0.0,27,0.00,CLR,SKC,0.00,WeatherDisplay:10.37,2013-05-28 08:52:00,
2013-05-28 04:53:00,69.6,33.2,28.14,SE,135,0.0,0.0,26,0.00,CLR,SKC,0.00,WeatherDisplay:10.37,2013-05-28 08:53:00,
2013-05-28 04:54:00,69.6,33.2,28.15,SE,135,0.0,0.0,26,0.00,CLR,SKC,0.00,WeatherDisplay:10.37,2013-05-28 08:54:00,
2013-05-28 04:55:00,69.6,33.2,28.15,SE,135,0.0,0.0,26,0.00,CLR,SKC,0.00,WeatherDisplay:10.37,2013-05-28 08:55:00,
2013-05-28 04:58:00,69.8,33.3,28.15,SE,135,0.0,0.0,26,0.00,CLR,SKC,0.00,WeatherDisplay:10.37,2013-05-28 08:58:00,
2013-05-28 04:59:00,69.8,33.3,28.15,South,180,0.0,0.0,26,0.00,CLR,SKC,0.00,WeatherDisplay:10.37,2013-05-28 08:59:00,
2013-05-28 05:00:00,69.8,33.3,28.15,South,180,0.0,0.0,26,0.00,CLR,SKC,0.00,WeatherDisplay:10.37,2013-05-28 09:00:00,
2013-05-28 05:03:00,69.8,33.3,28.15,South,180,0.0,0.0,26,0.00,CLR,SKC,0.00,WeatherDisplay:10.37,2013-05-28 09:03:00,
2013-05-28 05:04:00,69.8,33.3,28.15,South,180,0.0,0.0,26,0.00,CLR,SKC,0.00,WeatherDisplay:10.37,2013-05-28 09:04:00,
2013-05-28 05:05:00,69.8,33.3,28.15,South,180,0.0,0.0,26,0.00,CLR,SKC,0.00,WeatherDisplay:10.37,2013-05-28 09:05:00,
2013-05-28 05:08:00,69.6,33.2,28.15,SE,135,0.0,0.0,26,0.00,CLR,SKC,0.00,WeatherDisplay:10.37,2013-05-28 09:08:00,
2013-05-28 05:09:00,69.6,34.1,28.15,South,180,0.0,0.0,27,0.00,CLR,SKC,0.00,WeatherDisplay:10.37,2013-05-28 09:09:00,
2013-05-28 05:10:00,69.6,33.2,28.15,SE,135,0.0,0.0,26,0.00,CLR,SKC,0.00,WeatherDisplay:10.37,2013-05-28 09:10:00,
2013-05-28 05:13:00,69.3,33.8,28.15,South,180,0.0,0.0,27,0.00,CLR,SKC,0.00,WeatherDisplay:10.37,2013-05-28 09:13:00,
2013-05-28 05:15:00,69.3,33.8,28.15,SE,135,0.0,0.0,27,0.00,CLR,SKC,0.00,WeatherDisplay:10.37,2013-05-28 09:15:00,
2013-05-28 05:16:00,69.3,33.8,28.15,SE,135,0.0,0.0,27,0.00,CLR,SKC,0.00,WeatherDisplay:10.37,2013-05-28 09:16:00,
2013-05-28 05:19:00,69.4,34.0,28.15,SE,135,0.0,0.0,27,0.00,CLR,SKC,0.00,WeatherDisplay:10.37,2013-05-28 09:19:00,
2013-05-28 05:20:00,69.4,34.0,28.15,SE,135,0.0,0.0,27,0.00,CLR,SKC,0.00,WeatherDisplay:10.37,2013-05-28 09:20:00,
2013-05-28 05:21:00,69.4,34.0,28.15,SE,135,0.0,0.0,27,0.00,CLR,SKC,0.00,WeatherDisplay:10.37,2013-05-28 09:21:00,
2013-05-28 05:24:00,69.4,33.0,28.15,SE,135,0.0,0.0,26,0.00,CLR,SKC,0.00,WeatherDisplay:10.37,2013-05-28 09:24:00,
2013-05-28 05:25:00,69.4,33.0,28.15,SE,135,0.0,0.0,26,0.00,CLR,SKC,0.00,WeatherDisplay:10.37,2013-05-28 09:25:00,
2013-05-28 05:26:00,69.6,33.2,28.15,SE,135,0.0,0.0,26,0.00,CLR,SKC,0.00,WeatherDisplay:10.37,2013-05-28 09:26:00,
2013-05-28 05:29:00,69.6,33.2,28.16,SE,135,0.0,0.0,26,0.00,CLR,SKC,0.00,WeatherDisplay:10.37,2013-05-28 09:29:00,
2013-05-28 05:30:00,69.4,33.0,28.15,SE,135,0.0,0.0,26,0.00,CLR,SKC,0.00,WeatherDisplay:10.37,2013-05-28 09:30:00,
2013-05-28 05:31:00,69.6,33.2,28.15,SE,135,1.1,0.0,26,0.00,CLR,SKC,0.00,WeatherDisplay:10.37,2013-05-28 09:31:00,
2013-05-28 05:34:00,69.4,34.0,28.15,SE,135,0.0,0.0,27,0.00,CLR,SKC,0.00,WeatherDisplay:10.37,2013-05-28 09:34:00,
2013-05-28 05:35:00,69.4,34.0,28.15,SE,135,0.0,0.0,27,0.00,CLR,SKC,0.00,WeatherDisplay:10.37,2013-05-28 09:35:00,
2013-05-28 05:36:00,69.4,34.0,28.15,SE,135,0.0,0.0,27,0.00,CLR,SKC,0.00,WeatherDisplay:10.37,2013-05-28 09:36:00,
2013-05-28 05:39:00,69.3,34.7,28.16,SE,135,0.0,0.0,28,0.00,CLR,SKC,0.00,WeatherDisplay:10.37,2013-05-28 09:39:00,
2013-05-28 05:40:00,69.3,33.8,28.15,SE,135,0.0,0.0,27,0.00,CLR,SKC,0.00,WeatherDisplay:10.37,2013-05-28 09:40:00,
2013-05-28 05:41:00,69.3,33.8,28.16,SE,135,0.0,0.0,27,0.00,CLR,SKC,0.00,WeatherDisplay:10.37,2013-05-28 09:41:00,
2013-05-28 05:44:00,69.1,33.7,28.15,SE,135,0.0,0.0,27,0.00,CLR,SKC,0.00,WeatherDisplay:10.37,2013-05-28 09:44:00,
2013-05-28 05:45:00,69.1,35.5,28.16,SE,135,0.0,0.0,29,0.00,CLR,SKC,0.00,WeatherDisplay:10.37,2013-05-28 09:45:00,
2013-05-28 05:46:00,69.1,35.5,28.16,SE,135,0.0,0.0,29,0.00,CLR,SKC,0.00,WeatherDisplay:10.37,2013-05-28 09:46:00,
2013-05-28 05:47:00,69.1,35.5,28.15,SE,135,0.0,0.0,29,0.00,CLR,SKC,0.00,WeatherDisplay:10.37,2013-05-28 09:47:00,
2013-05-28 05:50:00,68.9,35.3,28.16,SE,135,0.0,0.0,29,0.00,CLR,SKC,0.00,WeatherDisplay:10.37,2013-05-28 09:50:00,
2013-05-28 05:51:00,68.7,35.2,28.16,SE,135,0.0,0.0,29,0.00,CLR,SKC,0.00,WeatherDisplay:10.37,2013-05-28 09:51:00,
2013-05-28 05:52:00,68.7,35.2,28.16,SE,135,0.0,0.0,29,0.00,CLR,SKC,0.00,WeatherDisplay:10.37,2013-05-28 09:52:00,
2013-05-28 05:55:00,68.5,36.7,28.16,SE,135,0.0,0.0,31,0.00,CLR,SKC,0.00,WeatherDisplay:10.37,2013-05-28 09:55:00,
2013-05-28 05:56:00,68.5,36.7,28.16,SE,135,0.0,0.0,31,0.00,CLR,SKC,0.00,WeatherDisplay:10.37,2013-05-28 09:56:00,
2013-05-28 05:57:00,68.5,36.7,28.16,SE,135,0.0,0.0,31,0.00,CLR,SKC,0.00,WeatherDisplay:10.37,2013-05-28 09:57:00,
2013-05-28 06:00:00,68.5,36.7,28.16,SE,135,0.0,0.0,31,0.00,CLR,SKC,0.00,WeatherDisplay:10.37,2013-05-28 10:00:00,
2013-05-28 06:01:00,68.5,37.5,28.16,SE,135,0.0,0.0,32,0.00,CLR,SKC,0.00,WeatherDisplay:10.37,2013-05-28 10:01:00,
2013-05-28 06:02:00,68.5,37.5,28.16,SE,135,0.0,0.0,32,0.00,CLR,SKC,0.00,WeatherDisplay:10.37,2013-05-28 10:02:00,
2013-05-28 06:03:00,68.5,37.5,28.16,SE,135,0.0,0.0,32,0.00,CLR,SKC,0.00,WeatherDisplay:10.37,2013-05-28 10:03:00,
2013-05-28 06:05:00,68.5,37.5,28.16,SE,135,0.0,0.0,32,0.00,CLR,SKC,0.00,WeatherDisplay:10.37,2013-05-28 10:05:00,
2013-05-28 06:06:00,68.5,37.5,28.16,SE,135,0.0,0.0,32,0.00,CLR,SKC,0.00,WeatherDisplay:10.37,2013-05-28 10:06:00,
2013-05-28 06:07:00,68.5,37.5,28.16,SE,135,0.0,0.0,32,0.00,CLR,SKC,0.00,WeatherDisplay:10.37,2013-05-28 10:07:00,
2013-05-28 06:08:00,68.4,37.3,28.16,SE,135,0.0,0.0,32,0.00,CLR,SKC,0.00,WeatherDisplay:10.37,2013-05-28 10:08:00,
2013-05-28 06:10:00,68.4,37.3,28.16,SE,135,0.0,0.0,32,0.00,CLR,SKC,0.00,WeatherDisplay:10.37,2013-05-28 10:10:00,
2013-05-28 06:11:00,68.5,37.5,28.17,SE,135,0.0,0.0,32,0.00,CLR,SKC,0.00,WeatherDisplay:10.37,2013-05-28 10:11:00,
2013-05-28 06:12:00,68.5,36.7,28.16,South,180,0.0,0.0,31,0.00,CLR,SKC,0.00,WeatherDisplay:10.37,2013-05-28 10:12:00,
2013-05-28 06:13:00,68.5,37.5,28.16,SE,135,0.0,0.0,32,0.00,CLR,SKC,0.00,WeatherDisplay:10.37,2013-05-28 10:13:00,
2013-05-28 06:15:00,68.7,37.7,28.17,SE,135,0.0,0.0,32,0.00,CLR,SKC,0.00,WeatherDisplay:10.37,2013-05-28 10:15:00,
2013-05-28 06:16:00,68.7,36.8,28.16,SE,135,0.0,0.0,31,0.00,CLR,SKC,0.00,WeatherDisplay:10.37,2013-05-28 10:16:00,
2013-05-28 06:18:00,68.7,36.8,28.17,SE,135,0.0,0.0,31,0.00,CLR,SKC,0.00,WeatherDisplay:10.37,2013-05-28 10:18:00,
2013-05-28 06:20:00,68.7,37.7,28.17,SE,135,0.0,0.0,32,0.00,CLR,SKC,0.00,WeatherDisplay:10.37,2013-05-28 10:20:00,
2013-05-28 06:21:00,68.7,36.8,28.16,SE,135,0.0,0.0,31,0.00,CLR,SKC,0.00,WeatherDisplay:10.37,2013-05-28 10:21:00,
2013-05-28 06:23:00,68.7,36.8,28.17,South,180,0.0,0.0,31,0.00,CLR,SKC,0.00,WeatherDisplay:10.37,2013-05-28 10:23:00,
2013-05-28 06:24:00,68.7,36.8,28.17,SE,135,0.0,0.0,31,0.00,CLR,SKC,0.00,WeatherDisplay:10.37,2013-05-28 10:24:00,
2013-05-28 06:25:00,68.7,36.8,28.17,SE,135,0.0,0.0,31,0.00,CLR,SKC,0.00,WeatherDisplay:10.37,2013-05-28 10:25:00,
2013-05-28 06:27:00,68.7,37.7,28.17,South,180,0.0,0.0,32,0.00,CLR,SKC,0.00,WeatherDisplay:10.37,2013-05-28 10:27:00,
2013-05-28 06:28:00,68.7,36.8,28.17,SSE,158,0.0,0.0,31,0.00,CLR,SKC,0.00,WeatherDisplay:10.37,2013-05-28 10:28:00,
2013-05-28 06:29:00,68.7,36.8,28.17,SE,135,0.0,0.0,31,0.00,CLR,SKC,0.00,WeatherDisplay:10.37,2013-05-28 10:29:00,
2013-05-28 06:31:00,68.7,37.7,28.17,SE,135,0.0,0.0,32,0.00,CLR,SKC,0.00,WeatherDisplay:10.37,2013-05-28 10:31:00,
2013-05-28 06:32:00,68.7,36.8,28.17,SE,135,0.0,0.0,31,0.00,CLR,SKC,0.00,WeatherDisplay:10.37,2013-05-28 10:32:00,
2013-05-28 06:33:00,68.7,36.8,28.17,SE,135,0.0,0.0,31,0.00,CLR,SKC,0.00,WeatherDisplay:10.37,2013-05-28 10:33:00,
2013-05-28 06:34:00,68.7,37.7,28.17,SE,135,0.0,0.0,32,0.00,CLR,SKC,0.00,WeatherDisplay:10.37,2013-05-28 10:34:00,
2013-05-28 06:36:00,68.5,36.7,28.18,SE,135,0.0,0.0,31,0.00,CLR,SKC,0.00,WeatherDisplay:10.37,2013-05-28 10:36:00,
2013-05-28 06:37:00,68.5,36.7,28.18,SE,135,0.0,0.0,31,0.00,CLR,SKC,0.00,WeatherDisplay:10.37,2013-05-28 10:37:00,
2013-05-28 06:39:00,68.7,37.7,28.17,SE,135,0.0,0.0,32,0.00,CLR,SKC,0.00,WeatherDisplay:10.37,2013-05-28 10:39:00,
2013-05-28 06:41:00,68.5,36.7,28.17,SE,135,0.0,0.0,31,0.00,CLR,SKC,0.00,WeatherDisplay:10.37,2013-05-28 10:41:00,
2013-05-28 06:42:00,68.5,36.7,28.17,SE,135,0.0,0.0,31,0.00,CLR,SKC,0.00,WeatherDisplay:10.37,2013-05-28 10:42:00,
2013-05-28 06:44:00,68.5,36.7,28.17,SE,135,0.0,0.0,31,0.00,CLR,SKC,0.00,WeatherDisplay:10.37,2013-05-28 10:44:00,
2013-05-28 06:47:00,68.5,37.5,28.18,SE,135,0.0,0.0,32,0.00,CLR,SKC,0.00,WeatherDisplay:10.37,2013-05-28 10:47:00,
2013-05-28 06:48:00,68.5,38.3,28.17,SE,135,0.0,0.0,33,0.00,CLR,SKC,0.00,WeatherDisplay:10.37,2013-05-28 10:48:00,
2013-05-28 06:49:00,68.5,37.5,28.18,SE,135,0.0,0.0,32,0.00,CLR,SKC,0.00,WeatherDisplay:10.37,2013-05-28 10:49:00,
2013-05-28 06:50:00,68.5,38.3,28.17,SE,135,0.0,0.0,33,0.00,CLR,SKC,0.00,WeatherDisplay:10.37,2013-05-28 10:50:00,
2013-05-28 06:52:00,68.4,38.1,28.18,SE,135,0.0,0.0,33,0.00,CLR,SKC,0.00,WeatherDisplay:10.37,2013-05-28 10:52:00,
2013-05-28 06:54:00,68.4,38.1,28.17,SE,135,0.0,0.0,33,0.00,CLR,SKC,0.00,WeatherDisplay:10.37,2013-05-28 10:54:00,
2013-05-28 06:55:00,68.4,38.1,28.17,SE,135,0.0,0.0,33,0.00,CLR,SKC,0.00,WeatherDisplay:10.37,2013-05-28 10:55:00,
2013-05-28 06:58:00,68.2,39.5,28.18,SE,135,0.0,0.0,35,0.00,CLR,SKC,0.00,WeatherDisplay:10.37,2013-05-28 10:58:00,
2013-05-28 06:59:00,68.2,39.5,28.18,SE,135,0.0,0.0,35,0.00,CLR,SKC,0.00,WeatherDisplay:10.37,2013-05-28 10:59:00,
2013-05-28 07:00:00,68.0,39.3,28.18,SE,135,0.0,0.0,35,0.00,CLR,SKC,0.00,WeatherDisplay:10.37,2013-05-28 11:00:00,
2013-05-28 07:01:00,68.0,39.3,28.18,SE,135,0.0,0.0,35,0.00,CLR,SKC,0.00,WeatherDisplay:10.37,2013-05-28 11:01:00,
2013-05-28 07:03:00,68.0,39.3,28.18,SE,135,0.0,0.0,35,0.00,CLR,SKC,0.00,WeatherDisplay:10.37,2013-05-28 11:03:00,
2013-05-28 07:04:00,68.0,39.3,28.18,SE,135,0.0,0.0,35,0.00,CLR,SKC,0.00,WeatherDisplay:10.37,2013-05-28 11:04:00,
2013-05-28 07:05:00,68.0,39.3,28.18,SE,135,0.0,0.0,35,0.00,CLR,SKC,0.00,WeatherDisplay:10.37,2013-05-28 11:05:00,
2013-05-28 07:06:00,68.0,39.3,28.18,SE,135,0.0,0.0,35,0.00,CLR,SKC,0.00,WeatherDisplay:10.37,2013-05-28 11:06:00,
2013-05-28 07:08:00,68.0,40.7,28.18,SE,135,0.0,0.0,37,0.00,CLR,SKC,0.00,WeatherDisplay:10.37,2013-05-28 11:08:00,
2013-05-28 07:09:00,67.8,40.6,28.18,SE,135,0.0,0.0,37,0.00,CLR,SKC,0.00,WeatherDisplay:10.37,2013-05-28 11:09:00,
2013-05-28 07:10:00,67.8,41.3,28.18,SE,135,0.0,0.0,38,0.00,CLR,SKC,0.00,WeatherDisplay:10.37,2013-05-28 11:10:00,
2013-05-28 07:11:00,67.8,41.3,28.18,SE,135,0.0,0.0,38,0.00,CLR,SKC,0.00,WeatherDisplay:10.37,2013-05-28 11:11:00,
2013-05-28 07:13:00,67.6,41.1,28.18,South,180,0.0,0.0,38,0.00,CLR,SKC,0.00,WeatherDisplay:10.37,2013-05-28 11:13:00,
2013-05-28 07:14:00,67.6,41.1,28.18,SW,225,0.0,0.0,38,0.00,CLR,SKC,0.00,WeatherDisplay:10.37,2013-05-28 11:14:00,
2013-05-28 07:15:00,67.6,41.1,28.18,SW,225,0.0,0.0,38,0.00,CLR,SKC,0.00,WeatherDisplay:10.37,2013-05-28 11:15:00,
2013-05-28 07:16:00,67.5,41.0,28.18,NW,315,0.0,0.0,38,0.00,CLR,SKC,0.00,WeatherDisplay:10.37,2013-05-28 11:16:00,
2013-05-28 07:18:00,67.5,42.3,28.18,ENE,68,0.0,0.0,40,0.00,CLR,SKC,0.00,WeatherDisplay:10.37,2013-05-28 11:18:00,
2013-05-28 07:20:00,67.5,42.3,28.18,ENE,68,0.0,0.0,40,0.00,CLR,SKC,0.00,WeatherDisplay:10.37,2013-05-28 11:20:00,
2013-05-28 07:21:00,67.3,44.0,28.18,ENE,68,0.0,0.0,43,0.00,CLR,SKC,0.00,WeatherDisplay:10.37,2013-05-28 11:21:00,
2013-05-28 07:24:00,67.1,43.8,28.19,ENE,68,0.0,0.0,43,0.00,CLR,SKC,0.00,WeatherDisplay:10.37,2013-05-28 11:24:00,
2013-05-28 07:25:00,66.9,43.7,28.18,ENE,68,0.0,0.0,43,0.00,CLR,SKC,0.00,WeatherDisplay:10.37,2013-05-28 11:25:00,
2013-05-28 07:26:00,66.9,43.7,28.18,ENE,68,0.0,0.0,43,0.00,CLR,SKC,0.00,WeatherDisplay:10.37,2013-05-28 11:26:00,
2013-05-28 07:27:00,66.9,43.7,28.19,ENE,68,0.0,0.0,43,0.00,CLR,SKC,0.00,WeatherDisplay:10.37,2013-05-28 11:27:00,
2013-05-28 07:29:00,66.7,44.1,28.19,ENE,68,0.0,0.0,44,0.00,CLR,SKC,0.00,WeatherDisplay:10.37,2013-05-28 11:29:00,
2013-05-28 07:30:00,66.7,43.5,28.18,ENE,68,0.0,0.0,43,0.00,CLR,SKC,0.00,WeatherDisplay:10.37,2013-05-28 11:30:00,
2013-05-28 07:31:00,66.7,43.5,28.19,ENE,68,0.0,0.0,43,0.00,CLR,SKC,0.00,WeatherDisplay:10.37,2013-05-28 11:31:00,
2013-05-28 07:32:00,66.6,43.4,28.19,ENE,68,0.0,0.0,43,0.00,CLR,SKC,0.00,WeatherDisplay:10.37,2013-05-28 11:32:00,
2013-05-28 07:34:00,66.6,44.5,28.19,SE,135,0.0,0.0,45,0.00,CLR,SKC,0.00,WeatherDisplay:10.37,2013-05-28 11:34:00,
2013-05-28 07:35:00,66.6,44.5,28.19,West,270,0.0,0.0,45,0.00,CLR,SKC,0.00,WeatherDisplay:10.37,2013-05-28 11:35:00,
2013-05-28 07:36:00,66.6,44.5,28.19,West,270,0.0,0.0,45,0.00,CLR,SKC,0.00,WeatherDisplay:10.37,2013-05-28 11:36:00,
2013-05-28 07:37:00,66.6,44.0,28.20,West,270,0.0,0.0,44,0.00,CLR,SKC,0.00,WeatherDisplay:10.37,2013-05-28 11:37:00,
2013-05-28 07:39:00,66.6,45.1,28.19,West,270,0.0,0.0,46,0.00,CLR,SKC,0.00,WeatherDisplay:10.37,2013-05-28 11:39:00,
2013-05-28 07:41:00,66.6,45.7,28.20,ENE,68,0.0,0.0,47,0.00,CLR,SKC,0.00,WeatherDisplay:10.37,2013-05-28 11:41:00,
2013-05-28 07:42:00,66.6,45.7,28.19,ENE,68,0.0,0.0,47,0.00,CLR,SKC,0.00,WeatherDisplay:10.37,2013-05-28 11:42:00,
2013-05-28 07:44:00,66.6,46.3,28.20,ENE,68,0.0,0.0,48,0.00,CLR,SKC,0.00,WeatherDisplay:10.37,2013-05-28 11:44:00,
2013-05-28 07:46:00,66.6,46.3,28.19,ENE,68,0.0,0.0,48,0.00,CLR,SKC,0.00,WeatherDisplay:10.37,2013-05-28 11:46:00,
2013-05-28 07:47:00,66.6,46.3,28.19,ENE,68,0.0,0.0,48,0.00,CLR,SKC,0.00,WeatherDisplay:10.37,2013-05-28 11:47:00,
2013-05-28 07:49:00,66.6,45.1,28.20,ENE,68,0.0,0.0,46,0.00,CLR,SKC,0.00,WeatherDisplay:10.37,2013-05-28 11:49:00,
2013-05-28 07:51:00,66.6,46.3,28.20,ENE,68,0.0,0.0,48,0.00,CLR,SKC,0.00,WeatherDisplay:10.37,2013-05-28 11:51:00,
2013-05-28 07:52:00,66.6,46.3,28.20,ENE,68,0.0,0.0,48,0.00,CLR,SKC,0.00,WeatherDisplay:10.37,2013-05-28 11:52:00,
2013-05-28 07:53:00,66.6,45.7,28.19,South,180,0.0,0.0,47,0.00,CLR,SKC,0.00,WeatherDisplay:10.37,2013-05-28 11:53:00,
2013-05-28 07:55:00,66.7,45.9,28.19,SE,135,0.0,0.0,47,0.00,CLR,SKC,0.00,WeatherDisplay:10.37,2013-05-28 11:55:00,
2013-05-28 07:57:00,66.6,45.7,28.20,SE,135,0.0,0.0,47,0.00,CLR,SKC,0.00,WeatherDisplay:10.37,2013-05-28 11:57:00,
2013-05-28 07:58:00,66.6,45.1,28.20,SE,135,0.0,0.0,46,0.00,CLR,SKC,0.00,WeatherDisplay:10.37,2013-05-28 11:58:00,
2013-05-28 08:00:00,66.7,45.3,28.20,ENE,68,0.0,0.0,46,0.00,CLR,SKC,0.00,WeatherDisplay:10.37,2013-05-28 12:00:00,
2013-05-28 08:02:00,66.7,45.3,28.19,ENE,68,0.0,0.0,46,0.00,CLR,SKC,0.00,WeatherDisplay:10.37,2013-05-28 12:02:00,
2013-05-28 08:03:00,66.7,45.3,28.20,ENE,68,0.0,0.0,46,0.00,CLR,SKC,0.00,WeatherDisplay:10.37,2013-05-28 12:03:00,
2013-05-28 08:06:00,66.7,45.3,28.20,ENE,68,0.0,0.0,46,0.00,CLR,SKC,0.00,WeatherDisplay:10.37,2013-05-28 12:06:00,
2013-05-28 08:07:00,66.7,45.3,28.19,ENE,68,0.0,0.0,46,0.00,CLR,SKC,0.00,WeatherDisplay:10.37,2013-05-28 12:07:00,
2013-05-28 08:08:00,67.5,43.6,28.19,SE,135,0.0,0.0,42,0.00,CLR,SKC,0.00,WeatherDisplay:10.37,2013-05-28 12:08:00,
2013-05-28 08:09:00,67.6,43.7,28.19,South,180,0.0,0.0,42,0.00,CLR,SKC,0.00,WeatherDisplay:10.37,2013-05-28 12:09:00,
2013-05-28 08:11:00,67.8,43.2,28.19,SE,135,0.0,0.0,41,0.00,CLR,SKC,0.00,WeatherDisplay:10.37,2013-05-28 12:11:00,
2013-05-28 08:12:00,68.0,44.0,28.19,SE,135,0.0,0.0,42,0.00,CLR,SKC,0.00,WeatherDisplay:10.37,2013-05-28 12:12:00,
2013-05-28 08:13:00,68.2,44.2,28.19,SE,135,0.0,0.0,42,0.00,CLR,SKC,0.00,WeatherDisplay:10.37,2013-05-28 12:13:00,
2013-05-28 08:14:00,68.2,44.2,28.19,SE,135,0.0,0.0,42,0.00,CLR,SKC,0.00,WeatherDisplay:10.37,2013-05-28 12:14:00,
2013-05-28 08:16:00,68.2,44.2,28.20,SE,135,0.0,0.0,42,0.00,CLR,SKC,0.00,WeatherDisplay:10.37,2013-05-28 12:16:00,
2013-05-28 08:17:00,68.2,42.9,28.19,SE,135,0.0,0.0,40,0.00,CLR,SKC,0.00,WeatherDisplay:10.37,2013-05-28 12:17:00,
2013-05-28 08:19:00,68.4,43.1,28.19,SE,135,0.0,0.0,40,0.00,CLR,SKC,0.00,WeatherDisplay:10.37,2013-05-28 12:19:00,
2013-05-28 08:21:00,68.7,42.1,28.20,SE,135,0.0,0.0,38,0.00,CLR,SKC,0.00,WeatherDisplay:10.37,2013-05-28 12:21:00,
2013-05-28 08:22:00,68.9,40.8,28.19,SE,135,0.0,0.0,36,0.00,CLR,SKC,0.00,WeatherDisplay:10.37,2013-05-28 12:22:00,
2013-05-28 08:24:00,69.1,39.5,28.19,SSE,158,0.0,0.0,34,0.00,CLR,SKC,0.00,WeatherDisplay:10.37,2013-05-28 12:24:00,
2013-05-28 08:26:00,69.3,39.7,28.19,SE,135,0.0,0.0,34,0.00,CLR,SKC,0.00,WeatherDisplay:10.37,2013-05-28 12:26:00,
2013-05-28 08:28:00,69.3,40.4,28.20,SE,135,0.0,0.0,35,0.00,CLR,SKC,0.00,WeatherDisplay:10.37,2013-05-28 12:28:00,
2013-05-28 08:29:00,69.3,41.2,28.20,SE,135,0.0,0.0,36,0.00,CLR,SKC,0.00,WeatherDisplay:10.37,2013-05-28 12:29:00,
2013-05-28 08:31:00,69.4,38.3,28.20,SE,135,0.0,0.0,32,0.00,CLR,SKC,0.00,WeatherDisplay:10.37,2013-05-28 12:31:00,
2013-05-28 08:33:00,69.6,39.2,28.20,SE,135,0.0,0.0,33,0.00,CLR,SKC,0.00,WeatherDisplay:10.37,2013-05-28 12:33:00,
2013-05-28 08:34:00,69.6,38.4,28.19,South,180,0.0,0.0,32,0.00,CLR,SKC,0.00,WeatherDisplay:10.37,2013-05-28 12:34:00,
2013-05-28 08:35:00,69.8,38.6,28.19,SE,135,0.0,0.0,32,0.00,CLR,SKC,0.00,WeatherDisplay:10.37,2013-05-28 12:35:00,
2013-05-28 08:37:00,70.0,37.1,28.19,SE,135,0.0,0.0,30,0.00,CLR,SKC,0.00,WeatherDisplay:10.37,2013-05-28 12:37:00,
2013-05-28 08:39:00,70.0,37.1,28.20,SE,135,0.0,0.0,30,0.00,CLR,SKC,0.00,WeatherDisplay:10.37,2013-05-28 12:39:00,
2013-05-28 08:40:00,70.0,36.2,28.20,SE,135,0.0,0.0,29,0.00,CLR,SKC,0.00,WeatherDisplay:10.37,2013-05-28 12:40:00,
2013-05-28 08:42:00,70.2,38.1,28.20,SE,135,0.0,0.0,31,0.00,CLR,SKC,0.00,WeatherDisplay:10.37,2013-05-28 12:42:00,
2013-05-28 08:44:00,70.2,37.3,28.20,SE,135,0.0,0.0,30,0.00,CLR,SKC,0.00,WeatherDisplay:10.37,2013-05-28 12:44:00,
2013-05-28 08:45:00,70.2,37.3,28.20,SE,135,0.0,0.0,30,0.00,CLR,SKC,0.00,WeatherDisplay:10.37,2013-05-28 12:45:00,
2013-05-28 08:47:00,70.2,37.3,28.20,SE,135,0.0,0.0,30,0.00,CLR,SKC,0.00,WeatherDisplay:10.37,2013-05-28 12:47:00,
2013-05-28 08:49:00,70.2,38.1,28.20,SE,135,0.0,0.0,31,0.00,CLR,SKC,0.00,WeatherDisplay:10.37,2013-05-28 12:49:00,
2013-05-28 08:50:00,70.2,36.4,28.20,SE,135,0.0,0.0,29,0.00,CLR,SKC,0.00,WeatherDisplay:10.37,2013-05-28 12:50:00,
2013-05-28 08:53:00,70.2,33.7,28.20,SE,135,0.0,0.0,26,0.00,CLR,SKC,0.00,WeatherDisplay:10.37,2013-05-28 12:53:00,
2013-05-28 08:54:00,70.2,34.6,28.20,SE,135,0.0,0.0,27,0.00,CLR,SKC,0.00,WeatherDisplay:10.37,2013-05-28 12:54:00,
2013-05-28 08:55:00,70.3,34.8,28.21,SE,135,0.0,0.0,27,0.00,CLR,SKC,0.00,WeatherDisplay:10.37,2013-05-28 12:55:00,
2013-05-28 08:58:00,70.3,34.8,28.21,SE,135,0.0,0.0,27,0.00,CLR,SKC,0.00,WeatherDisplay:10.37,2013-05-28 12:58:00,
2013-05-28 08:59:00,70.3,33.8,28.21,SE,135,0.0,0.0,26,0.00,CLR,SKC,0.00,WeatherDisplay:10.37,2013-05-28 12:59:00,
2013-05-28 09:00:00,70.3,32.8,28.21,SE,135,0.0,0.0,25,0.00,CLR,SKC,0.00,WeatherDisplay:10.37,2013-05-28 13:00:00,
2013-05-28 09:03:00,70.3,32.8,28.21,SE,135,0.0,0.0,25,0.00,CLR,SKC,0.00,WeatherDisplay:10.37,2013-05-28 13:03:00,
2013-05-28 09:04:00,70.3,32.8,28.21,SE,135,0.0,0.0,25,0.00,CLR,SKC,0.00,WeatherDisplay:10.37,2013-05-28 13:04:00,
2013-05-28 09:05:00,70.3,32.8,28.21,SE,135,0.0,0.0,25,0.00,CLR,SKC,0.00,WeatherDisplay:10.37,2013-05-28 13:05:00,
2013-05-28 09:06:00,70.3,32.8,28.21,SE,135,0.0,0.0,25,0.00,CLR,SKC,0.00,WeatherDisplay:10.37,2013-05-28 13:06:00,
2013-05-28 09:08:00,70.5,34.9,28.21,SE,135,0.0,0.0,27,0.00,CLR,SKC,0.00,WeatherDisplay:10.37,2013-05-28 13:08:00,
2013-05-28 09:09:00,70.5,34.9,28.21,SE,135,0.0,0.0,27,0.00,CLR,SKC,0.00,WeatherDisplay:10.37,2013-05-28 13:09:00,
2013-05-28 09:10:00,70.5,34.9,28.21,SE,135,0.0,0.0,27,0.00,CLR,SKC,0.00,WeatherDisplay:10.37,2013-05-28 13:10:00,
2013-05-28 09:11:00,70.5,35.8,28.22,SE,135,0.0,0.0,28,0.00,CLR,SKC,0.00,WeatherDisplay:10.37,2013-05-28 13:11:00,
2013-05-28 09:13:00,70.5,35.8,28.21,SE,135,0.0,0.0,28,0.00,CLR,SKC,0.00,WeatherDisplay:10.37,2013-05-28 13:13:00,
2013-05-28 09:14:00,70.5,35.8,28.21,SE,135,0.0,0.0,28,0.00,CLR,SKC,0.00,WeatherDisplay:10.37,2013-05-28 13:14:00,
2013-05-28 09:15:00,70.5,35.8,28.22,SE,135,0.0,0.0,28,0.00,CLR,SKC,0.00,WeatherDisplay:10.37,2013-05-28 13:15:00,
2013-05-28 09:16:00,70.5,35.8,28.21,SE,135,0.0,0.0,28,0.00,CLR,SKC,0.00,WeatherDisplay:10.37,2013-05-28 13:16:00,
2013-05-28 09:19:00,70.5,36.7,28.21,SE,135,0.0,0.0,29,0.00,CLR,SKC,0.00,WeatherDisplay:10.37,2013-05-28 13:19:00,
2013-05-28 09:20:00,70.5,35.8,28.21,SE,135,0.0,0.0,28,0.00,CLR,SKC,0.00,WeatherDisplay:10.37,2013-05-28 13:20:00,
2013-05-28 09:21:00,70.5,36.7,28.21,SE,135,0.0,0.0,29,0.00,CLR,SKC,0.00,WeatherDisplay:10.37,2013-05-28 13:21:00,
2013-05-28 09:24:00,70.7,33.1,28.21,SE,135,0.0,0.0,25,0.00,CLR,SKC,0.00,WeatherDisplay:10.37,2013-05-28 13:24:00,
2013-05-28 09:25:00,70.7,33.1,28.21,SE,135,0.0,0.0,25,0.00,CLR,SKC,0.00,WeatherDisplay:10.37,2013-05-28 13:25:00,
2013-05-28 09:26:00,70.9,35.2,28.21,SE,135,0.0,0.0,27,0.00,CLR,SKC,0.00,WeatherDisplay:10.37,2013-05-28 13:26:00,
2013-05-28 09:27:00,70.9,35.2,28.21,SE,135,0.0,0.0,27,0.00,CLR,SKC,0.00,WeatherDisplay:10.37,2013-05-28 13:27:00,
2013-05-28 09:29:00,71.1,34.4,28.21,SE,135,0.0,0.0,26,0.00,CLR,SKC,0.00,WeatherDisplay:10.37,2013-05-28 13:29:00,
2013-05-28 09:30:00,71.1,33.4,28.21,SE,135,0.0,0.0,25,0.00,CLR,SKC,0.00,WeatherDisplay:10.37,2013-05-28 13:30:00,
2013-05-28 09:31:00,71.1,33.4,28.20,SE,135,0.0,0.0,25,0.00,CLR,SKC,0.00,WeatherDisplay:10.37,2013-05-28 13:31:00,
2013-05-28 09:32:00,71.2,33.6,28.21,South,180,0.0,0.0,25,0.00,CLR,SKC,0.00,WeatherDisplay:10.37,2013-05-28 13:32:00,
2013-05-28 09:35:00,71.4,32.7,28.21,West,270,0.0,0.0,24,0.00,CLR,SKC,0.00,WeatherDisplay:10.37,2013-05-28 13:35:00,
2013-05-28 09:36:00,71.6,33.9,28.21,West,270,0.0,0.0,25,0.00,CLR,SKC,0.00,WeatherDisplay:10.37,2013-05-28 13:36:00,
2013-05-28 09:37:00,71.8,34.0,28.21,West,270,0.0,0.0,25,0.00,CLR,SKC,0.00,WeatherDisplay:10.37,2013-05-28 13:37:00,
2013-05-28 09:40:00,72.0,31.0,28.21,West,270,0.0,0.0,22,0.00,CLR,SKC,0.00,WeatherDisplay:10.37,2013-05-28 13:40:00,
2013-05-28 09:41:00,72.1,30.0,28.20,West,270,0.0,0.0,21,0.00,CLR,SKC,0.00,WeatherDisplay:10.37,2013-05-28 13:41:00,
2013-05-28 09:42:00,72.1,27.6,28.21,West,270,0.0,0.0,19,0.00,CLR,SKC,0.00,WeatherDisplay:10.37,2013-05-28 13:42:00,
2013-05-28 09:45:00,72.3,27.7,28.21,West,270,0.0,0.0,19,0.00,CLR,SKC,0.00,WeatherDisplay:10.37,2013-05-28 13:45:00,
2013-05-28 09:46:00,72.3,27.7,28.21,South,180,0.0,0.0,19,0.00,CLR,SKC,0.00,WeatherDisplay:10.37,2013-05-28 13:46:00,
2013-05-28 09:47:00,72.3,26.4,28.21,SE,135,0.0,0.0,18,0.00,CLR,SKC,0.00,WeatherDisplay:10.37,2013-05-28 13:47:00,
2013-05-28 09:50:00,72.5,26.5,28.21,South,180,0.0,0.0,18,0.00,CLR,SKC,0.00,WeatherDisplay:10.37,2013-05-28 13:50:00,
2013-05-28 09:51:00,72.5,26.5,28.21,South,180,0.0,0.0,18,0.00,CLR,SKC,0.00,WeatherDisplay:10.37,2013-05-28 13:51:00,
2013-05-28 09:52:00,72.5,26.5,28.21,South,180,0.0,0.0,18,0.00,CLR,SKC,0.00,WeatherDisplay:10.37,2013-05-28 13:52:00,
2013-05-28 09:55:00,73.2,22.8,28.21,SE,135,0.0,0.0,15,0.00,CLR,SKC,0.00,WeatherDisplay:10.37,2013-05-28 13:55:00,
2013-05-28 09:56:00,73.4,22.9,28.21,SE,135,0.0,0.0,15,0.00,CLR,SKC,0.00,WeatherDisplay:10.37,2013-05-28 13:56:00,
2013-05-28 09:57:00,73.6,26.0,28.21,SE,135,0.0,0.0,17,0.00,CLR,SKC,0.00,WeatherDisplay:10.37,2013-05-28 13:57:00,
2013-05-28 10:00:00,73.8,23.2,28.21,SE,135,0.0,0.0,15,0.00,CLR,SKC,0.00,WeatherDisplay:10.37,2013-05-28 14:00:00,
2013-05-28 10:02:00,73.8,23.2,28.21,SE,135,0.0,0.0,15,0.00,CLR,SKC,0.00,WeatherDisplay:10.37,2013-05-28 14:02:00,
2013-05-28 10:03:00,73.8,23.2,28.21,SE,135,0.0,0.0,15,0.00,CLR,SKC,0.00,WeatherDisplay:10.37,2013-05-28 14:03:00,
2013-05-28 10:05:00,73.8,23.2,28.21,SE,135,0.0,0.0,15,0.00,CLR,SKC,0.00,WeatherDisplay:10.37,2013-05-28 14:05:00,
2013-05-28 10:07:00,73.8,23.2,28.21,SE,135,0.0,0.0,15,0.00,CLR,SKC,0.00,WeatherDisplay:10.37,2013-05-28 14:07:00,
2013-05-28 10:08:00,73.9,21.7,28.21,South,180,0.0,0.0,14,0.00,CLR,SKC,0.00,WeatherDisplay:10.37,2013-05-28 14:08:00,
2013-05-28 10:10:00,74.3,22.0,28.22,SSW,202,0.0,0.0,14,0.00,CLR,SKC,0.00,WeatherDisplay:10.37,2013-05-28 14:10:00,
2013-05-28 10:11:00,74.3,22.0,28.22,SSW,202,0.0,0.0,14,0.00,CLR,SKC,0.00,WeatherDisplay:10.37,2013-05-28 14:11:00,
2013-05-28 10:12:00,74.3,18.4,28.21,NW,315,0.0,0.0,12,0.00,CLR,SKC,0.00,WeatherDisplay:10.37,2013-05-28 14:12:00,
2013-05-28 10:13:00,74.3,18.4,28.21,South,180,0.0,0.0,12,0.00,CLR,SKC,0.00,WeatherDisplay:10.37,2013-05-28 14:13:00,
2013-05-28 10:16:00,74.7,18.6,28.22,ENE,68,0.0,0.0,12,0.00,CLR,SKC,0.00,WeatherDisplay:10.37,2013-05-28 14:16:00,
2013-05-28 10:17:00,74.8,16.8,28.21,SE,135,0.0,0.0,11,0.00,CLR,SKC,0.00,WeatherDisplay:10.37,2013-05-28 14:17:00,
2013-05-28 10:18:00,75.0,20.8,28.21,South,180,0.0,0.0,13,0.00,CLR,SKC,0.00,WeatherDisplay:10.37,2013-05-28 14:18:00,
2013-05-28 10:21:00,75.0,14.7,28.21,ENE,68,0.0,0.0,10,0.00,CLR,SKC,0.00,WeatherDisplay:10.37,2013-05-28 14:21:00,
2013-05-28 10:22:00,75.0,14.7,28.21,West,270,0.0,0.0,10,0.00,CLR,SKC,0.00,WeatherDisplay:10.37,2013-05-28 14:22:00,
2013-05-28 10:23:00,75.2,17.0,28.22,NE,45,0.0,0.0,11,0.00,CLR,SKC,0.00,WeatherDisplay:10.37,2013-05-28 14:23:00,
2013-05-28 10:24:00,75.2,17.0,28.22,NE,45,0.0,0.0,11,0.00,CLR,SKC,0.00,WeatherDisplay:10.37,2013-05-28 14:24:00,
2013-05-28 10:26:00,75.4,17.2,28.21,South,180,0.0,0.0,11,0.00,CLR,SKC,0.00,WeatherDisplay:10.37,2013-05-28 14:26:00,
2013-05-28 10:27:00,75.6,19.3,28.21,SW,225,0.0,0.0,12,0.00,CLR,SKC,0.00,WeatherDisplay:10.37,2013-05-28 14:27:00,
2013-05-28 10:29:00,75.6,17.3,28.21,SW,225,0.0,0.0,11,0.00,CLR,SKC,0.00,WeatherDisplay:10.37,2013-05-28 14:29:00,
2013-05-28 10:31:00,75.9,15.4,28.21,SW,225,0.0,0.0,10,0.00,CLR,SKC,0.00,WeatherDisplay:10.37,2013-05-28 14:31:00,
2013-05-28 10:33:00,76.1,15.5,28.21,South,180,0.0,0.0,10,0.00,CLR,SKC,0.00,WeatherDisplay:10.37,2013-05-28 14:33:00,
2013-05-28 10:34:00,76.3,15.7,28.21,ENE,68,0.0,0.0,10,0.00,CLR,SKC,0.00,WeatherDisplay:10.37,2013-05-28 14:34:00,
2013-05-28 10:36:00,76.8,16.1,28.21,SW,225,1.1,0.0,10,0.00,CLR,SKC,0.00,WeatherDisplay:10.37,2013-05-28 14:36:00,
2013-05-28 10:38:00,77.0,16.2,28.20,SW,225,1.1,0.0,10,0.00,CLR,SKC,0.00,WeatherDisplay:10.37,2013-05-28 14:38:00,
2013-05-28 10:39:00,77.2,16.3,28.20,SE,135,2.3,0.0,10,0.00,CLR,SKC,0.00,WeatherDisplay:10.37,2013-05-28 14:39:00,
2013-05-28 10:41:00,77.2,16.3,28.20,South,180,0.0,0.0,10,0.00,CLR,SKC,0.00,WeatherDisplay:10.37,2013-05-28 14:41:00,
2013-05-28 10:42:00,77.2,16.3,28.20,South,180,0.0,0.0,10,0.00,CLR,SKC,0.00,WeatherDisplay:10.37,2013-05-28 14:42:00,
2013-05-28 10:43:00,77.4,16.5,28.20,East,90,0.0,0.0,10,0.00,CLR,SKC,0.00,WeatherDisplay:10.37,2013-05-28 14:43:00,
2013-05-28 10:44:00,77.7,16.8,28.20,ENE,68,0.0,0.0,10,0.00,CLR,SKC,0.00,WeatherDisplay:10.37,2013-05-28 14:44:00,
2013-05-28 10:46:00,78.4,17.3,28.20,SE,135,0.0,0.0,10,0.00,CLR,SKC,0.00,WeatherDisplay:10.37,2013-05-28 14:46:00,
2013-05-28 10:47:00,78.4,17.3,28.20,SE,135,0.0,0.0,10,0.00,CLR,SKC,0.00,WeatherDisplay:10.37,2013-05-28 14:47:00,
2013-05-28 10:49:00,78.8,17.6,28.20,SE,135,0.0,0.0,10,0.00,CLR,SKC,0.00,WeatherDisplay:10.37,2013-05-28 14:49:00,
2013-05-28 10:50:00,79.0,17.7,28.20,ENE,68,0.0,0.0,10,0.00,CLR,SKC,0.00,WeatherDisplay:10.37,2013-05-28 14:50:00,
2013-05-28 10:52:00,79.3,18.0,28.20,East,90,0.0,0.0,10,0.00,CLR,SKC,0.00,WeatherDisplay:10.37,2013-05-28 14:52:00,
2013-05-28 10:54:00,79.9,18.4,28.20,South,180,0.0,0.0,10,0.00,CLR,SKC,0.00,WeatherDisplay:10.37,2013-05-28 14:54:00,
2013-05-28 10:55:00,80.1,18.5,28.19,West,270,0.0,0.0,10,0.00,CLR,SKC,0.00,WeatherDisplay:10.37,2013-05-28 14:55:00,
2013-05-28 10:57:00,80.2,18.7,28.19,SW,225,0.0,0.0,10,0.00,CLR,SKC,0.00,WeatherDisplay:10.37,2013-05-28 14:57:00,
2013-05-28 10:59:00,80.4,18.8,28.19,SE,135,0.0,0.0,10,0.00,CLR,SKC,0.00,WeatherDisplay:10.37,2013-05-28 14:59:00,
2013-05-28 11:00:00,80.4,18.8,28.19,SE,135,0.0,0.0,10,0.00,CLR,SKC,0.00,WeatherDisplay:10.37,2013-05-28 15:00:00,
2013-05-28 11:02:00,80.4,18.8,28.19,SE,135,0.0,0.0,10,0.00,CLR,SKC,0.00,WeatherDisplay:10.37,2013-05-28 15:02:00,
2013-05-28 11:04:00,80.4,18.8,28.19,SE,135,0.0,0.0,10,0.00,CLR,SKC,0.00,WeatherDisplay:10.37,2013-05-28 15:04:00,
2013-05-28 11:05:00,80.4,18.8,28.19,SE,135,0.0,0.0,10,0.00,CLR,SKC,0.00,WeatherDisplay:10.37,2013-05-28 15:05:00,
2013-05-28 11:07:00,81.0,19.2,28.19,NE,45,0.0,0.0,10,0.00,CLR,SKC,0.00,WeatherDisplay:10.37,2013-05-28 15:07:00,
2013-05-28 11:09:00,81.3,19.5,28.19,SW,225,0.0,0.0,10,0.00,CLR,SKC,0.00,WeatherDisplay:10.37,2013-05-28 15:09:00,
2013-05-28 11:10:00,81.5,19.6,28.19,SW,225,0.0,0.0,10,0.00,CLR,SKC,0.00,WeatherDisplay:10.37,2013-05-28 15:10:00,
2013-05-28 11:12:00,82.2,20.2,28.19,SE,135,0.0,0.0,10,0.00,CLR,SKC,0.00,WeatherDisplay:10.37,2013-05-28 15:12:00,
2013-05-28 11:14:00,81.7,19.8,28.19,South,180,1.1,0.0,10,0.00,CLR,SKC,0.00,WeatherDisplay:10.37,2013-05-28 15:14:00,
2013-05-28 11:15:00,81.5,19.6,28.19,SE,135,1.1,0.0,10,0.00,CLR,SKC,0.00,WeatherDisplay:10.37,2013-05-28 15:15:00,
2013-05-28 11:17:00,80.8,19.1,28.19,South,180,0.0,0.0,10,0.00,CLR,SKC,0.00,WeatherDisplay:10.37,2013-05-28 15:17:00,
2013-05-28 11:18:00,80.8,19.1,28.19,South,180,0.0,0.0,10,0.00,CLR,SKC,0.00,WeatherDisplay:10.37,2013-05-28 15:18:00,
2013-05-28 11:19:00,80.2,18.7,28.19,South,180,0.0,0.0,10,0.00,CLR,SKC,0.00,WeatherDisplay:10.37,2013-05-28 15:19:00,
2013-05-28 11:20:00,80.2,18.7,28.19,South,180,0.0,0.0,10,0.00,CLR,SKC,0.00,WeatherDisplay:10.37,2013-05-28 15:20:00,
2013-05-28 11:21:00,80.2,18.7,28.19,South,180,0.0,0.0,10,0.00,CLR,SKC,0.00,WeatherDisplay:10.37,2013-05-28 15:21:00,
2013-05-28 11:22:00,79.9,18.4,28.19,South,180,1.1,0.0,10,0.00,CLR,SKC,0.00,WeatherDisplay:10.37,2013-05-28 15:22:00,
2013-05-28 11:23:00,79.9,18.4,28.19,South,180,1.1,0.0,10,0.00,CLR,SKC,0.00,WeatherDisplay:10.37,2013-05-28 15:23:00,
2013-05-28 11:24:00,79.9,18.4,28.19,East,90,0.0,0.0,10,0.00,CLR,SKC,0.00,WeatherDisplay:10.37,2013-05-28 15:24:00,
2013-05-28 11:25:00,79.9,18.4,28.19,East,90,0.0,0.0,10,0.00,CLR,SKC,0.00,WeatherDisplay:10.37,2013-05-28 15:25:00,
2013-05-28 11:26:00,80.1,18.5,28.20,SW,225,0.0,0.0,10,0.00,CLR,SKC,0.00,WeatherDisplay:10.37,2013-05-28 15:26:00,
2013-05-28 11:28:00,80.2,18.7,28.19,East,90,0.0,0.0,10,0.00,CLR,SKC,0.00,WeatherDisplay:10.37,2013-05-28 15:28:00,
2013-05-28 11:29:00,80.2,18.7,28.20,SW,225,0.0,0.0,10,0.00,CLR,SKC,0.00,WeatherDisplay:10.37,2013-05-28 15:29:00,
2013-05-28 11:30:00,80.3,18.7,28.20,SSE,158,0.0,1.0,10,0.00,CLR,SKC,0.00,WeatherDisplay:10.37,2013-05-28 15:30:00,
2013-05-28 11:31:00,80.4,18.8,28.20,SE,135,0.0,0.0,10,0.00,CLR,SKC,0.00,WeatherDisplay:10.37,2013-05-28 15:31:00,
2013-05-28 11:33:00,80.2,18.7,28.20,SE,135,0.0,0.0,10,0.00,CLR,SKC,0.00,WeatherDisplay:10.37,2013-05-28 15:33:00,
2013-05-28 11:34:00,79.9,18.4,28.20,South,180,0.0,0.0,10,0.00,CLR,SKC,0.00,WeatherDisplay:10.37,2013-05-28 15:34:00,
2013-05-28 11:35:00,79.9,18.4,28.20,SW,225,0.0,0.0,10,0.00,CLR,SKC,0.00,WeatherDisplay:10.37,2013-05-28 15:35:00,
2013-05-28 11:36:00,79.9,18.4,28.20,SW,225,0.0,0.0,10,0.00,CLR,SKC,0.00,WeatherDisplay:10.37,2013-05-28 15:36:00,
2013-05-28 11:38:00,80.4,18.8,28.20,SSE,158,0.0,0.0,10,0.00,CLR,SKC,0.00,WeatherDisplay:10.37,2013-05-28 15:38:00,
2013-05-28 11:39:00,80.6,19.0,28.20,SE,135,0.0,0.0,10,0.00,CLR,SKC,0.00,WeatherDisplay:10.37,2013-05-28 15:39:00,
2013-05-28 11:40:00,80.8,19.1,28.20,SE,135,0.0,0.0,10,0.00,CLR,SKC,0.00,WeatherDisplay:10.37,2013-05-28 15:40:00,
2013-05-28 11:41:00,80.8,19.1,28.20,SE,135,0.0,0.0,10,0.00,CLR,SKC,0.00,WeatherDisplay:10.37,2013-05-28 15:41:00,
2013-05-28 11:44:00,81.5,19.6,28.19,ENE,68,0.0,0.0,10,0.00,CLR,SKC,0.00,WeatherDisplay:10.37,2013-05-28 15:44:00,
2013-05-28 11:45:00,81.7,19.8,28.20,South,180,0.0,0.0,10,0.00,CLR,SKC,0.00,WeatherDisplay:10.37,2013-05-28 15:45:00,
2013-05-28 11:46:00,81.7,19.8,28.19,SE,135,0.0,0.0,10,0.00,CLR,SKC,0.00,WeatherDisplay:10.37,2013-05-28 15:46:00,
2013-05-28 11:49:00,81.1,19.4,28.20,SE,135,0.0,0.0,10,0.00,CLR,SKC,0.00,WeatherDisplay:10.37,2013-05-28 15:49:00,
2013-05-28 11:50:00,81.1,19.4,28.20,ENE,68,0.0,0.0,10,0.00,CLR,SKC,0.00,WeatherDisplay:10.37,2013-05-28 15:50:00,
2013-05-28 11:51:00,81.0,19.2,28.20,ENE,68,0.0,0.0,10,0.00,CLR,SKC,0.00,WeatherDisplay:10.37,2013-05-28 15:51:00,
2013-05-28 11:54:00,80.1,18.5,28.20,ENE,68,0.0,0.0,10,0.00,CLR,SKC,0.00,WeatherDisplay:10.37,2013-05-28 15:54:00,
2013-05-28 11:55:00,80.1,18.5,28.19,East,90,0.0,0.0,10,0.00,CLR,SKC,0.00,WeatherDisplay:10.37,2013-05-28 15:55:00,
2013-05-28 11:56:00,79.7,18.3,28.20,East,90,0.0,0.0,10,0.00,CLR,SKC,0.00,WeatherDisplay:10.37,2013-05-28 15:56:00,
2013-05-28 12:00:00,79.5,18.1,28.20,East,90,0.0,0.0,10,0.00,CLR,SKC,0.00,WeatherDisplay:10.37,2013-05-28 16:00:00,
2013-05-28 12:01:00,79.5,18.1,28.19,ENE,68,0.0,0.0,10,0.00,CLR,SKC,0.00,WeatherDisplay:10.37,2013-05-28 16:01:00,
2013-05-28 12:02:00,79.5,18.1,28.20,ENE,68,0.0,0.0,10,0.00,CLR,SKC,0.00,WeatherDisplay:10.37,2013-05-28 16:02:00,
2013-05-28 12:03:00,79.5,18.1,28.20,ENE,68,0.0,0.0,10,0.00,CLR,SKC,0.00,WeatherDisplay:10.37,2013-05-28 16:03:00,
2013-05-28 12:05:00,79.5,18.1,28.20,ENE,68,0.0,0.0,10,0.00,CLR,SKC,0.00,WeatherDisplay:10.37,2013-05-28 16:05:00,
2013-05-28 12:07:00,79.5,18.1,28.20,ENE,68,0.0,0.0,10,0.00,CLR,SKC,0.00,WeatherDisplay:10.37,2013-05-28 16:07:00,
2013-05-28 12:08:00,80.6,19.0,28.19,ENE,68,0.0,0.0,10,0.00,CLR,SKC,0.00,WeatherDisplay:10.37,2013-05-28 16:08:00,
2013-05-28 12:10:00,81.1,19.4,28.19,NW,315,0.0,0.0,10,0.00,CLR,SKC,0.00,WeatherDisplay:10.37,2013-05-28 16:10:00,
2013-05-28 12:12:00,81.7,19.8,28.19,West,270,0.0,0.0,10,0.00,CLR,SKC,0.00,WeatherDisplay:10.37,2013-05-28 16:12:00,
2013-05-28 12:13:00,82.0,20.1,28.19,West,270,0.0,0.0,10,0.00,CLR,SKC,0.00,WeatherDisplay:10.37,2013-05-28 16:13:00,
2013-05-28 12:15:00,82.4,20.3,28.19,West,270,0.0,0.0,10,0.00,CLR,SKC,0.00,WeatherDisplay:10.37,2013-05-28 16:15:00,
2013-05-28 12:16:00,82.4,20.3,28.19,West,270,0.0,0.0,10,0.00,CLR,SKC,0.00,WeatherDisplay:10.37,2013-05-28 16:16:00,
2013-05-28 12:17:00,83.1,20.9,28.19,West,270,0.0,0.0,10,0.00,CLR,SKC,0.00,WeatherDisplay:10.37,2013-05-28 16:17:00,
2013-05-28 12:18:00,83.5,21.2,28.19,NW,315,0.0,0.0,10,0.00,CLR,SKC,0.00,WeatherDisplay:10.37,2013-05-28 16:18:00,
2013-05-28 12:21:00,83.5,21.2,28.19,WNW,292,0.0,0.0,10,0.00,CLR,SKC,0.00,WeatherDisplay:10.37,2013-05-28 16:21:00,
2013-05-28 12:22:00,83.3,21.0,28.19,North,0,0.0,0.0,10,0.00,CLR,SKC,0.00,WeatherDisplay:10.37,2013-05-28 16:22:00,
2013-05-28 12:23:00,82.9,20.7,28.19,West,270,0.0,0.0,10,0.00,CLR,SKC,0.00,WeatherDisplay:10.37,2013-05-28 16:23:00,
2013-05-28 12:26:00,82.0,20.1,28.19,NW,315,0.0,0.0,10,0.00,CLR,SKC,0.00,WeatherDisplay:10.37,2013-05-28 16:26:00,
2013-05-28 12:27:00,82.6,20.5,28.19,SE,135,0.0,0.0,10,0.00,CLR,SKC,0.00,WeatherDisplay:10.37,2013-05-28 16:27:00,
2013-05-28 12:28:00,82.6,20.5,28.19,SE,135,0.0,0.0,10,0.00,CLR,SKC,0.00,WeatherDisplay:10.37,2013-05-28 16:28:00,
2013-05-28 12:31:00,82.9,20.7,28.20,South,180,0.0,0.0,10,0.00,CLR,SKC,0.00,WeatherDisplay:10.37,2013-05-28 16:31:00,
2013-05-28 12:32:00,83.7,21.3,28.19,NE,45,0.0,0.0,10,0.00,CLR,SKC,0.00,WeatherDisplay:10.37,2013-05-28 16:32:00,
2013-05-28 12:33:00,83.7,21.3,28.19,NE,45,0.0,0.0,10,0.00,CLR,SKC,0.00,WeatherDisplay:10.37,2013-05-28 16:33:00,
2013-05-28 12:34:00,83.8,21.4,28.19,NE,45,0.0,0.0,10,0.00,CLR,SKC,0.00,WeatherDisplay:10.37,2013-05-28 16:34:00,
2013-05-28 12:36:00,84.2,21.7,28.19,SE,135,0.0,0.0,10,0.00,CLR,SKC,0.00,WeatherDisplay:10.37,2013-05-28 16:36:00,
2013-05-28 12:38:00,84.2,21.7,28.19,SW,225,0.0,0.0,10,0.00,CLR,SKC,0.00,WeatherDisplay:10.37,2013-05-28 16:38:00,
2013-05-28 12:39:00,84.0,21.6,28.19,West,270,0.0,0.0,10,0.00,CLR,SKC,0.00,WeatherDisplay:10.37,2013-05-28 16:39:00,
2013-05-28 12:41:00,84.0,21.6,28.19,NW,315,0.0,0.0,10,0.00,CLR,SKC,0.00,WeatherDisplay:10.37,2013-05-28 16:41:00,
2013-05-28 12:42:00,84.0,21.6,28.19,NE,45,0.0,0.0,10,0.00,CLR,SKC,0.00,WeatherDisplay:10.37,2013-05-28 16:42:00,
2013-05-28 12:43:00,83.8,21.4,28.19,NE,45,0.0,0.0,10,0.00,CLR,SKC,0.00,WeatherDisplay:10.37,2013-05-28 16:43:00,
2013-05-28 12:44:00,83.5,21.2,28.19,NE,45,0.0,0.0,10,0.00,CLR,SKC,0.00,WeatherDisplay:10.37,2013-05-28 16:44:00,
2013-05-28 12:46:00,83.8,21.4,28.19,NE,45,0.0,0.0,10,0.00,CLR,SKC,0.00,WeatherDisplay:10.37,2013-05-28 16:46:00,
2013-05-28 12:47:00,83.8,21.4,28.19,NE,45,0.0,0.0,10,0.00,CLR,SKC,0.00,WeatherDisplay:10.37,2013-05-28 16:47:00,
2013-05-28 12:48:00,84.0,21.6,28.19,NE,45,0.0,0.0,10,0.00,CLR,SKC,0.00,WeatherDisplay:10.37,2013-05-28 16:48:00,
2013-05-28 12:49:00,84.4,21.8,28.19,North,0,0.0,0.0,10,0.00,CLR,SKC,0.00,WeatherDisplay:10.37,2013-05-28 16:49:00,
2013-05-28 12:50:00,84.6,22.0,28.18,South,180,0.0,0.0,10,0.00,CLR,SKC,0.00,WeatherDisplay:10.37,2013-05-28 16:50:00,
2013-05-28 12:51:00,84.9,22.2,28.18,North,0,0.0,0.0,10,0.00,CLR,SKC,0.00,WeatherDisplay:10.37,2013-05-28 16:51:00,
2013-05-28 12:52:00,85.1,22.4,28.18,NNW,338,0.0,0.0,10,0.00,CLR,SKC,0.00,WeatherDisplay:10.37,2013-05-28 16:52:00,
2013-05-28 12:53:00,84.9,22.2,28.18,North,0,0.0,0.0,10,0.00,CLR,SKC,0.00,WeatherDisplay:10.37,2013-05-28 16:53:00,
2013-05-28 12:54:00,84.9,22.2,28.18,North,0,0.0,0.0,10,0.00,CLR,SKC,0.00,WeatherDisplay:10.37,2013-05-28 16:54:00,
2013-05-28 12:55:00,84.7,22.1,28.18,NE,45,0.0,0.0,10,0.00,CLR,SKC,0.00,WeatherDisplay:10.37,2013-05-28 16:55:00,
2013-05-28 12:56:00,85.1,22.4,28.18,SSW,202,0.0,0.0,10,0.00,CLR,SKC,0.00,WeatherDisplay:10.37,2013-05-28 16:56:00,
2013-05-28 12:57:00,85.1,22.4,28.18,SSW,202,1.1,0.0,10,0.00,CLR,SKC,0.00,WeatherDisplay:10.37,2013-05-28 16:57:00,
2013-05-28 12:58:00,85.1,22.4,28.18,SW,225,1.1,0.0,10,0.00,CLR,SKC,0.00,WeatherDisplay:10.37,2013-05-28 16:58:00,
2013-05-28 12:59:00,85.3,22.5,28.18,West,270,1.1,0.0,10,0.00,CLR,SKC,0.00,WeatherDisplay:10.37,2013-05-28 16:59:00,
2013-05-28 13:00:00,85.3,22.5,28.18,West,270,0.0,0.0,10,0.00,CLR,SKC,0.00,WeatherDisplay:10.37,2013-05-28 17:00:00,
2013-05-28 13:01:00,85.3,22.5,28.18,NW,315,0.0,0.0,10,0.00,CLR,SKC,0.00,WeatherDisplay:10.37,2013-05-28 17:01:00,
2013-05-28 13:03:00,85.3,22.5,28.17,NW,315,0.0,0.0,10,0.00,CLR,SKC,0.00,WeatherDisplay:10.37,2013-05-28 17:03:00,
2013-05-28 13:04:00,85.3,22.5,28.17,NW,315,0.0,0.0,10,0.00,CLR,SKC,0.00,WeatherDisplay:10.37,2013-05-28 17:04:00,
2013-05-28 13:05:00,85.3,22.5,28.17,NW,315,0.0,0.0,10,0.00,CLR,SKC,0.00,WeatherDisplay:10.37,2013-05-28 17:05:00,
2013-05-28 13:07:00,85.3,22.5,28.17,NW,315,0.0,0.0,10,0.00,CLR,SKC,0.00,WeatherDisplay:10.37,2013-05-28 17:07:00,
2013-05-28 13:08:00,85.8,22.9,28.18,South,180,0.0,0.0,10,0.00,CLR,SKC,0.00,WeatherDisplay:10.37,2013-05-28 17:08:00,
2013-05-28 13:09:00,85.6,22.8,28.17,South,180,0.0,0.0,10,0.00,CLR,SKC,0.00,WeatherDisplay:10.37,2013-05-28 17:09:00,
2013-05-28 13:10:00,85.6,22.8,28.17,South,180,0.0,0.0,10,0.00,CLR,SKC,0.00,WeatherDisplay:10.37,2013-05-28 17:10:00,
2013-05-28 13:12:00,85.6,22.8,28.17,West,270,1.1,0.0,10,0.00,CLR,SKC,0.00,WeatherDisplay:10.37,2013-05-28 17:12:00,
2013-05-28 13:13:00,85.6,22.8,28.17,SW,225,1.1,0.0,10,0.00,CLR,SKC,0.00,WeatherDisplay:10.37,2013-05-28 17:13:00,
2013-05-28 13:14:00,85.6,22.8,28.17,SW,225,1.1,0.0,10,0.00,CLR,SKC,0.00,WeatherDisplay:10.37,2013-05-28 17:14:00,
2013-05-28 13:15:00,85.5,22.7,28.17,SW,225,1.1,0.0,10,0.00,CLR,SKC,0.00,WeatherDisplay:10.37,2013-05-28 17:15:00,
2013-05-28 13:17:00,85.6,22.8,28.17,West,270,0.0,0.0,10,0.00,CLR,SKC,0.00,WeatherDisplay:10.37,2013-05-28 17:17:00,
2013-05-28 13:18:00,85.8,22.9,28.17,NE,45,0.7,0.0,10,0.00,CLR,SKC,0.00,WeatherDisplay:10.37,2013-05-28 17:18:00,
2013-05-28 13:19:00,85.8,22.9,28.17,NE,45,1.1,0.0,10,0.00,CLR,SKC,0.00,WeatherDisplay:10.37,2013-05-28 17:19:00,
2013-05-28 13:20:00,85.6,22.8,28.17,South,180,1.1,0.0,10,0.00,CLR,SKC,0.00,WeatherDisplay:10.37,2013-05-28 17:20:00,
2013-05-28 13:22:00,85.3,22.5,28.17,SE,135,0.0,0.0,10,0.00,CLR,SKC,0.00,WeatherDisplay:10.37,2013-05-28 17:22:00,
2013-05-28 13:24:00,84.9,22.2,28.17,East,90,1.1,0.0,10,0.00,CLR,SKC,0.00,WeatherDisplay:10.37,2013-05-28 17:24:00,
2013-05-28 13:25:00,84.2,21.7,28.17,South,180,3.5,0.0,10,0.00,CLR,SKC,0.00,WeatherDisplay:10.37,2013-05-28 17:25:00,
2013-05-28 13:26:00,84.2,21.7,28.17,South,180,3.5,0.0,10,0.00,CLR,SKC,0.00,WeatherDisplay:10.37,2013-05-28 17:26:00,
2013-05-28 13:28:00,83.3,21.0,28.17,SE,135,0.0,0.0,10,0.00,CLR,SKC,0.00,WeatherDisplay:10.37,2013-05-28 17:28:00,
2013-05-28 13:29:00,82.9,20.7,28.17,East,90,0.0,0.0,10,0.00,CLR,SKC,0.00,WeatherDisplay:10.37,2013-05-28 17:29:00,
2013-05-28 13:30:00,82.9,20.7,28.17,ESE,123,0.0,4.0,10,0.00,CLR,SKC,0.00,WeatherDisplay:10.37,2013-05-28 17:30:00,
2013-05-28 13:31:00,82.9,20.7,28.16,North,0,1.1,0.0,10,0.00,CLR,SKC,0.00,WeatherDisplay:10.37,2013-05-28 17:31:00,
2013-05-28 13:33:00,82.9,20.7,28.17,North,0,0.0,0.0,10,0.00,CLR,SKC,0.00,WeatherDisplay:10.37,2013-05-28 17:33:00,
2013-05-28 13:34:00,82.9,20.7,28.16,North,0,0.0,0.0,10,0.00,CLR,SKC,0.00,WeatherDisplay:10.37,2013-05-28 17:34:00,
2013-05-28 13:35:00,82.9,20.7,28.16,North,0,0.0,0.0,10,0.00,CLR,SKC,0.00,WeatherDisplay:10.37,2013-05-28 17:35:00,
2013-05-28 13:36:00,83.3,21.0,28.17,North,0,0.0,0.0,10,0.00,CLR,SKC,0.00,WeatherDisplay:10.37,2013-05-28 17:36:00,
2013-05-28 13:38:00,83.7,21.3,28.17,West,270,0.0,0.0,10,0.00,CLR,SKC,0.00,WeatherDisplay:10.37,2013-05-28 17:38:00,
2013-05-28 13:39:00,83.8,21.4,28.16,West,270,0.0,0.0,10,0.00,CLR,SKC,0.00,WeatherDisplay:10.37,2013-05-28 17:39:00,
2013-05-28 13:40:00,84.0,21.6,28.17,NW,315,0.0,0.0,10,0.00,CLR,SKC,0.00,WeatherDisplay:10.37,2013-05-28 17:40:00,
2013-05-28 13:41:00,84.2,21.7,28.16,NNW,338,6.9,6.9,10,0.00,CLR,SKC,0.00,WeatherDisplay:10.37,2013-05-28 17:41:00,
2013-05-28 13:42:00,84.0,21.6,28.16,NW,315,6.9,0.0,10,0.00,CLR,SKC,0.00,WeatherDisplay:10.37,2013-05-28 17:42:00,
2013-05-28 13:43:00,84.0,21.6,28.16,South,180,1.1,0.0,10,0.00,CLR,SKC,0.00,WeatherDisplay:10.37,2013-05-28 17:43:00,
2013-05-28 13:44:00,84.0,21.6,28.16,SE,135,0.0,0.0,10,0.00,CLR,SKC,0.00,WeatherDisplay:10.37,2013-05-28 17:44:00,
2013-05-28 13:45:00,84.2,21.7,28.16,SE,135,2.3,0.0,10,0.00,CLR,SKC,0.00,WeatherDisplay:10.37,2013-05-28 17:45:00,
2013-05-28 13:46:00,84.4,21.8,28.16,SE,135,2.3,0.0,10,0.00,CLR,SKC,0.00,WeatherDisplay:10.37,2013-05-28 17:46:00,
2013-05-28 13:47:00,84.4,21.8,28.16,SW,225,1.1,0.0,10,0.00,CLR,SKC,0.00,WeatherDisplay:10.37,2013-05-28 17:47:00,
2013-05-28 13:49:00,84.6,22.0,28.16,West,270,0.0,0.0,10,0.00,CLR,SKC,0.00,WeatherDisplay:10.37,2013-05-28 17:49:00,
2013-05-28 13:50:00,84.6,22.0,28.16,SE,135,0.0,0.0,10,0.00,CLR,SKC,0.00,WeatherDisplay:10.37,2013-05-28 17:50:00,
2013-05-28 13:51:00,84.2,21.7,28.16,NE,45,0.0,0.0,10,0.00,CLR,SKC,0.00,WeatherDisplay:10.37,2013-05-28 17:51:00,
2013-05-28 13:52:00,84.2,21.7,28.16,SSW,202,0.0,0.0,10,0.00,CLR,SKC,0.00,WeatherDisplay:10.37,2013-05-28 17:52:00,
2013-05-28 13:54:00,83.8,21.4,28.16,South,180,5.8,0.0,10,0.00,CLR,SKC,0.00,WeatherDisplay:10.37,2013-05-28 17:54:00,
2013-05-28 13:55:00,83.8,21.4,28.16,South,180,5.8,0.0,10,0.00,CLR,SKC,0.00,WeatherDisplay:10.37,2013-05-28 17:55:00,
2013-05-28 13:56:00,83.8,21.4,28.16,South,180,3.5,0.0,10,0.00,CLR,SKC,0.00,WeatherDisplay:10.37,2013-05-28 17:56:00,
2013-05-28 13:57:00,83.7,21.3,28.16,South,180,6.9,6.9,10,0.00,CLR,SKC,0.00,WeatherDisplay:10.37,2013-05-28 17:57:00,
2013-05-28 13:58:00,83.8,21.4,28.15,ENE,68,6.9,0.0,10,0.00,CLR,SKC,0.00,WeatherDisplay:10.37,2013-05-28 17:58:00,
2013-05-28 13:59:00,83.8,21.4,28.16,SE,135,5.8,0.0,10,0.00,CLR,SKC,0.00,WeatherDisplay:10.37,2013-05-28 17:59:00,
2013-05-28 14:00:00,83.8,21.4,28.16,SE,135,0.0,0.0,10,0.00,CLR,SKC,0.00,WeatherDisplay:10.37,2013-05-28 18:00:00,
2013-05-28 14:01:00,84.0,21.6,28.15,SE,135,0.0,0.0,10,0.00,CLR,SKC,0.00,WeatherDisplay:10.37,2013-05-28 18:01:00,
2013-05-28 14:02:00,84.0,21.6,28.15,SE,135,0.0,0.0,10,0.00,CLR,SKC,0.00,WeatherDisplay:10.37,2013-05-28 18:02:00,
2013-05-28 14:03:00,84.0,21.6,28.15,SE,135,0.0,0.0,10,0.00,CLR,SKC,0.00,WeatherDisplay:10.37,2013-05-28 18:03:00,
2013-05-28 14:04:00,84.0,21.6,28.15,SE,135,0.0,0.0,10,0.00,CLR,SKC,0.00,WeatherDisplay:10.37,2013-05-28 18:04:00,
2013-05-28 14:05:00,84.0,21.6,28.15,SE,135,0.0,0.0,10,0.00,CLR,SKC,0.00,WeatherDisplay:10.37,2013-05-28 18:05:00,
2013-05-28 14:06:00,84.0,21.6,28.15,SE,135,0.0,0.0,10,0.00,CLR,SKC,0.00,WeatherDisplay:10.37,2013-05-28 18:06:00,
2013-05-28 14:07:00,86.4,23.3,28.15,SE,135,0.0,0.0,10,0.00,CLR,SKC,0.00,WeatherDisplay:10.37,2013-05-28 18:07:00,
2013-05-28 14:08:00,86.5,23.5,28.15,South,180,0.0,0.0,10,0.00,CLR,SKC,0.00,WeatherDisplay:10.37,2013-05-28 18:08:00,
2013-05-28 14:09:00,86.9,23.8,28.15,SE,135,0.0,0.0,10,0.00,CLR,SKC,0.00,WeatherDisplay:10.37,2013-05-28 18:09:00,
2013-05-28 14:10:00,86.9,23.8,28.15,SE,135,0.0,0.0,10,0.00,CLR,SKC,0.00,WeatherDisplay:10.37,2013-05-28 18:10:00,
2013-05-28 14:11:00,87.1,23.9,28.15,West,270,0.0,0.0,10,0.00,CLR,SKC,0.00,WeatherDisplay:10.37,2013-05-28 18:11:00,
2013-05-28 14:12:00,87.4,24.2,28.15,West,270,0.0,0.0,10,0.00,CLR,SKC,0.00,WeatherDisplay:10.37,2013-05-28 18:12:00,
2013-05-28 14:13:00,87.4,24.2,28.15,West,270,0.0,0.0,10,0.00,CLR,SKC,0.00,WeatherDisplay:10.37,2013-05-28 18:13:00,
2013-05-28 14:14:00,87.4,24.2,28.15,West,270,0.0,0.0,10,0.00,CLR,SKC,0.00,WeatherDisplay:10.37,2013-05-28 18:14:00,
2013-05-28 14:15:00,87.6,24.3,28.15,South,180,0.0,0.0,10,0.00,CLR,SKC,0.00,WeatherDisplay:10.37,2013-05-28 18:15:00,
2013-05-28 14:16:00,87.6,24.3,28.15,West,270,0.0,0.0,10,0.00,CLR,SKC,0.00,WeatherDisplay:10.37,2013-05-28 18:16:00,
2013-05-28 14:17:00,87.8,24.4,28.15,NE,45,1.1,0.0,10,0.00,CLR,SKC,0.00,WeatherDisplay:10.37,2013-05-28 18:17:00,
2013-05-28 14:18:00,87.8,24.4,28.15,SW,225,3.1,0.0,10,0.00,CLR,SKC,0.00,WeatherDisplay:10.37,2013-05-28 18:18:00,
2013-05-28 14:19:00,87.8,24.4,28.14,NNW,338,3.5,0.0,10,0.00,CLR,SKC,0.00,WeatherDisplay:10.37,2013-05-28 18:19:00,
2013-05-28 14:20:00,87.8,24.4,28.15,SW,225,3.5,0.0,10,0.00,CLR,SKC,0.00,WeatherDisplay:10.37,2013-05-28 18:20:00,
2013-05-28 14:21:00,87.8,24.4,28.15,SSW,202,1.1,0.0,10,0.00,CLR,SKC,0.00,WeatherDisplay:10.37,2013-05-28 18:21:00,
2013-05-28 14:22:00,87.6,24.3,28.14,SE,135,1.1,0.0,10,0.00,CLR,SKC,0.00,WeatherDisplay:10.37,2013-05-28 18:22:00,
2013-05-28 14:23:00,87.6,24.3,28.15,SE,135,1.1,0.0,10,0.00,CLR,SKC,0.00,WeatherDisplay:10.37,2013-05-28 18:23:00,
2013-05-28 14:24:00,87.4,24.2,28.14,SE,135,3.5,0.0,10,0.00,CLR,SKC,0.00,WeatherDisplay:10.37,2013-05-28 18:24:00,
2013-05-28 14:25:00,87.4,24.2,28.14,SE,135,3.5,0.0,10,0.00,CLR,SKC,0.00,WeatherDisplay:10.37,2013-05-28 18:25:00,
2013-05-28 14:27:00,87.4,24.2,28.14,SE,135,2.3,0.0,10,0.00,CLR,SKC,0.00,WeatherDisplay:10.37,2013-05-28 18:27:00,
2013-05-28 14:28:00,87.6,24.3,28.14,South,180,2.3,0.0,10,0.00,CLR,SKC,0.00,WeatherDisplay:10.37,2013-05-28 18:28:00,
2013-05-28 14:30:00,87.5,24.2,28.14,SSE,167,0.0,3.0,10,0.00,CLR,SKC,0.00,WeatherDisplay:10.37,2013-05-28 18:30:00,
2013-05-28 14:33:00,87.6,24.3,28.14,SW,225,0.0,0.0,10,0.00,CLR,SKC,0.00,WeatherDisplay:10.37,2013-05-28 18:33:00,
2013-05-28 14:35:00,88.0,24.6,28.14,SE,135,0.0,0.0,10,0.00,CLR,SKC,0.00,WeatherDisplay:10.37,2013-05-28 18:35:00,
2013-05-28 14:38:00,88.3,24.8,28.14,SW,225,1.1,0.0,10,0.00,CLR,SKC,0.00,WeatherDisplay:10.37,2013-05-28 18:38:00,
2013-05-28 14:39:00,88.3,24.8,28.14,South,180,2.3,0.0,10,0.00,CLR,SKC,0.00,WeatherDisplay:10.37,2013-05-28 18:39:00,
2013-05-28 14:40:00,88.3,24.8,28.14,West,270,1.1,0.0,10,0.00,CLR,SKC,0.00,WeatherDisplay:10.37,2013-05-28 18:40:00,
2013-05-28 14:43:00,88.3,24.8,28.14,SW,225,3.5,0.0,10,0.00,CLR,SKC,0.00,WeatherDisplay:10.37,2013-05-28 18:43:00,
2013-05-28 14:44:00,87.8,24.4,28.14,SE,135,3.5,0.0,10,0.00,CLR,SKC,0.00,WeatherDisplay:10.37,2013-05-28 18:44:00,
2013-05-28 14:45:00,87.6,24.3,28.14,SE,135,3.5,0.0,10,0.00,CLR,SKC,0.00,WeatherDisplay:10.37,2013-05-28 18:45:00,
2013-05-28 14:48:00,87.1,23.9,28.15,SE,135,0.0,0.0,10,0.00,CLR,SKC,0.00,WeatherDisplay:10.37,2013-05-28 18:48:00,
2013-05-28 14:49:00,87.1,23.9,28.14,SW,225,0.0,0.0,10,0.00,CLR,SKC,0.00,WeatherDisplay:10.37,2013-05-28 18:49:00,
2013-05-28 14:51:00,86.9,23.8,28.14,South,180,0.0,0.0,10,0.00,CLR,SKC,0.00,WeatherDisplay:10.37,2013-05-28 18:51:00,
2013-05-28 14:53:00,86.9,23.8,28.14,South,180,0.0,0.0,10,0.00,CLR,SKC,0.00,WeatherDisplay:10.37,2013-05-28 18:53:00,
2013-05-28 14:55:00,86.9,23.8,28.14,South,180,5.8,5.8,10,0.00,CLR,SKC,0.00,WeatherDisplay:10.37,2013-05-28 18:55:00,
2013-05-28 14:56:00,86.7,23.6,28.15,SE,135,5.8,5.8,10,0.00,CLR,SKC,0.00,WeatherDisplay:10.37,2013-05-28 18:56:00,
2013-05-28 14:57:00,86.7,23.6,28.14,SE,135,5.8,0.0,10,0.00,CLR,SKC,0.00,WeatherDisplay:10.37,2013-05-28 18:57:00,
2013-05-28 14:58:00,86.5,23.5,28.14,South,180,0.0,0.0,10,0.00,CLR,SKC,0.00,WeatherDisplay:10.37,2013-05-28 18:58:00,
2013-05-28 15:00:00,86.5,23.5,28.14,SE,135,1.1,0.0,10,0.00,CLR,SKC,0.00,WeatherDisplay:10.37,2013-05-28 19:00:00,
2013-05-28 15:01:00,86.5,23.5,28.14,SE,135,0.0,0.0,10,0.00,CLR,SKC,0.00,WeatherDisplay:10.37,2013-05-28 19:01:00,
2013-05-28 15:02:00,86.5,23.5,28.14,SE,135,0.0,0.0,10,0.00,CLR,SKC,0.00,WeatherDisplay:10.37,2013-05-28 19:02:00,
2013-05-28 15:03:00,86.5,23.5,28.14,SE,135,0.0,0.0,10,0.00,CLR,SKC,0.00,WeatherDisplay:10.37,2013-05-28 19:03:00,
2013-05-28 15:04:00,86.5,23.5,28.14,SE,135,0.0,0.0,10,0.00,CLR,SKC,0.00,WeatherDisplay:10.37,2013-05-28 19:04:00,
2013-05-28 15:05:00,86.5,23.5,28.15,SE,135,0.0,0.0,10,0.00,CLR,SKC,0.00,WeatherDisplay:10.37,2013-05-28 19:05:00,
2013-05-28 15:06:00,86.5,23.5,28.15,SE,135,0.0,0.0,10,0.00,CLR,SKC,0.00,WeatherDisplay:10.37,2013-05-28 19:06:00,
2013-05-28 15:07:00,86.7,23.6,28.15,SW,225,0.0,0.0,10,0.00,CLR,SKC,0.00,WeatherDisplay:10.37,2013-05-28 19:07:00,
2013-05-28 15:09:00,86.9,23.8,28.15,NW,315,0.0,0.0,10,0.00,CLR,SKC,0.00,WeatherDisplay:10.37,2013-05-28 19:09:00,
2013-05-28 15:10:00,87.1,23.9,28.15,South,180,0.0,0.0,10,0.00,CLR,SKC,0.00,WeatherDisplay:10.37,2013-05-28 19:10:00,
2013-05-28 15:11:00,87.1,23.9,28.14,North,0,0.0,0.0,10,0.00,CLR,SKC,0.00,WeatherDisplay:10.37,2013-05-28 19:11:00,
2013-05-28 15:12:00,87.1,23.9,28.14,North,0,0.0,0.0,10,0.00,CLR,SKC,0.00,WeatherDisplay:10.37,2013-05-28 19:12:00,
2013-05-28 15:14:00,86.9,23.8,28.15,NE,45,0.0,0.0,10,0.00,CLR,SKC,0.00,WeatherDisplay:10.37,2013-05-28 19:14:00,
2013-05-28 15:15:00,86.9,23.8,28.15,West,270,1.1,0.0,10,0.00,CLR,SKC,0.00,WeatherDisplay:10.37,2013-05-28 19:15:00,
2013-05-28 15:16:00,87.1,23.9,28.15,West,270,1.1,0.0,10,0.00,CLR,SKC,0.00,WeatherDisplay:10.37,2013-05-28 19:16:00,
2013-05-28 15:17:00,87.1,23.9,28.15,West,270,1.1,0.0,10,0.00,CLR,SKC,0.00,WeatherDisplay:10.37,2013-05-28 19:17:00,
2013-05-28 15:19:00,87.1,23.9,28.15,East,90,0.0,0.0,10,0.00,CLR,SKC,0.00,WeatherDisplay:10.37,2013-05-28 19:19:00,
2013-05-28 15:20:00,87.3,24.0,28.14,East,90,3.5,3.5,10,0.00,CLR,SKC,0.00,WeatherDisplay:10.37,2013-05-28 19:20:00,
2013-05-28 15:22:00,86.7,23.6,28.15,South,180,8.1,0.0,10,0.00,CLR,SKC,0.00,WeatherDisplay:10.37,2013-05-28 19:22:00,
2013-05-28 15:24:00,86.5,23.5,28.15,South,180,0.0,0.0,10,0.00,CLR,SKC,0.00,WeatherDisplay:10.37,2013-05-28 19:24:00,
2013-05-28 15:25:00,86.5,23.5,28.15,SW,225,0.0,0.0,10,0.00,CLR,SKC,0.00,WeatherDisplay:10.37,2013-05-28 19:25:00,
2013-05-28 15:26:00,86.5,23.5,28.15,South,180,0.0,0.0,10,0.00,CLR,SKC,0.00,WeatherDisplay:10.37,2013-05-28 19:26:00,
2013-05-28 15:27:00,86.5,23.5,28.14,SW,225,0.0,0.0,10,0.00,CLR,SKC,0.00,WeatherDisplay:10.37,2013-05-28 19:27:00,
2013-05-28 15:28:00,86.5,23.5,28.15,West,270,1.1,0.0,10,0.00,CLR,SKC,0.00,WeatherDisplay:10.37,2013-05-28 19:28:00,
2013-05-28 15:29:00,86.5,23.5,28.14,South,180,0.0,0.0,10,0.00,CLR,SKC,0.00,WeatherDisplay:10.37,2013-05-28 19:29:00,
2013-05-28 15:30:00,86.5,23.5,28.14,South,180,0.0,0.0,10,0.00,CLR,SKC,0.00,WeatherDisplay:10.37,2013-05-28 19:30:00,
2013-05-28 15:31:00,86.5,23.5,28.14,South,180,0.0,0.0,10,0.00,CLR,SKC,0.00,WeatherDisplay:10.37,2013-05-28 19:31:00,
2013-05-28 15:33:00,86.7,23.6,28.15,SW,225,0.0,0.0,10,0.00,CLR,SKC,0.00,WeatherDisplay:10.37,2013-05-28 19:33:00,
2013-05-28 15:34:00,86.9,23.8,28.14,SW,225,0.0,0.0,10,0.00,CLR,SKC,0.00,WeatherDisplay:10.37,2013-05-28 19:34:00,
2013-05-28 15:35:00,86.9,23.8,28.14,SW,225,0.0,0.0,10,0.00,CLR,SKC,0.00,WeatherDisplay:10.37,2013-05-28 19:35:00,
2013-05-28 15:36:00,86.9,23.8,28.14,SW,225,0.0,0.0,10,0.00,CLR,SKC,0.00,WeatherDisplay:10.37,2013-05-28 19:36:00,
2013-05-28 15:38:00,86.9,23.8,28.14,South,180,0.0,0.0,10,0.00,CLR,SKC,0.00,WeatherDisplay:10.37,2013-05-28 19:38:00,
2013-05-28 15:39:00,87.1,23.9,28.14,NE,45,0.0,0.0,10,0.00,CLR,SKC,0.00,WeatherDisplay:10.37,2013-05-28 19:39:00,
2013-05-28 15:40:00,87.1,23.9,28.15,SE,135,0.0,0.0,10,0.00,CLR,SKC,0.00,WeatherDisplay:10.37,2013-05-28 19:40:00,
2013-05-28 15:41:00,87.1,23.9,28.14,SE,135,0.0,0.0,10,0.00,CLR,SKC,0.00,WeatherDisplay:10.37,2013-05-28 19:41:00,
2013-05-28 15:43:00,86.9,23.8,28.14,South,180,4.6,0.0,10,0.00,CLR,SKC,0.00,WeatherDisplay:10.37,2013-05-28 19:43:00,
2013-05-28 15:44:00,86.9,23.8,28.14,SE,135,0.0,0.0,10,0.00,CLR,SKC,0.00,WeatherDisplay:10.37,2013-05-28 19:44:00,
2013-05-28 15:45:00,86.9,23.8,28.14,SE,135,1.1,0.0,10,0.00,CLR,SKC,0.00,WeatherDisplay:10.37,2013-05-28 19:45:00,
2013-05-28 15:46:00,86.9,23.8,28.15,South,180,0.0,0.0,10,0.00,CLR,SKC,0.00,WeatherDisplay:10.37,2013-05-28 19:46:00,
2013-05-28 15:48:00,86.9,23.8,28.14,North,0,1.6,0.0,10,0.00,CLR,SKC,0.00,WeatherDisplay:10.37,2013-05-28 19:48:00,
2013-05-28 15:49:00,87.1,23.9,28.14,East,90,1.1,0.0,10,0.00,CLR,SKC,0.00,WeatherDisplay:10.37,2013-05-28 19:49:00,
2013-05-28 15:50:00,87.1,23.9,28.14,West,270,1.1,0.0,10,0.00,CLR,SKC,0.00,WeatherDisplay:10.37,2013-05-28 19:50:00,
2013-05-28 15:52:00,87.3,24.0,28.14,South,180,1.1,0.0,10,0.00,CLR,SKC,0.00,WeatherDisplay:10.37,2013-05-28 19:52:00,
2013-05-28 15:53:00,87.3,24.0,28.14,South,180,1.1,0.0,10,0.00,CLR,SKC,0.00,WeatherDisplay:10.37,2013-05-28 19:53:00,
2013-05-28 15:54:00,87.4,24.2,28.14,South,180,0.0,0.0,10,0.00,CLR,SKC,0.00,WeatherDisplay:10.37,2013-05-28 19:54:00,
2013-05-28 15:55:00,87.3,24.0,28.14,SE,135,0.0,0.0,10,0.00,CLR,SKC,0.00,WeatherDisplay:10.37,2013-05-28 19:55:00,
2013-05-28 15:56:00,87.3,24.0,28.14,SE,135,0.0,0.0,10,0.00,CLR,SKC,0.00,WeatherDisplay:10.37,2013-05-28 19:56:00,
2013-05-28 15:57:00,87.4,24.2,28.14,South,180,0.0,0.0,10,0.00,CLR,SKC,0.00,WeatherDisplay:10.37,2013-05-28 19:57:00,
2013-05-28 15:59:00,87.6,24.3,28.14,South,180,0.0,0.0,10,0.00,CLR,SKC,0.00,WeatherDisplay:10.37,2013-05-28 19:59:00,
2013-05-28 16:01:00,87.8,24.4,28.14,South,180,0.0,0.0,10,0.00,CLR,SKC,0.00,WeatherDisplay:10.37,2013-05-28 20:01:00,
2013-05-28 16:02:00,87.8,24.4,28.14,South,180,0.0,0.0,10,0.00,CLR,SKC,0.00,WeatherDisplay:10.37,2013-05-28 20:02:00,
2013-05-28 16:04:00,87.8,24.4,28.14,South,180,0.0,0.0,10,0.00,CLR,SKC,0.00,WeatherDisplay:10.37,2013-05-28 20:04:00,
2013-05-28 16:05:00,87.8,24.4,28.14,South,180,0.0,0.0,10,0.00,CLR,SKC,0.00,WeatherDisplay:10.37,2013-05-28 20:05:00,
2013-05-28 16:06:00,87.8,24.4,28.14,South,180,0.0,0.0,10,0.00,CLR,SKC,0.00,WeatherDisplay:10.37,2013-05-28 20:06:00,
2013-05-28 16:07:00,89.1,25.4,28.14,South,180,0.0,0.0,10,0.00,CLR,SKC,0.00,WeatherDisplay:10.37,2013-05-28 20:07:00,
2013-05-28 16:10:00,88.9,25.3,28.13,South,180,1.1,0.0,10,0.00,CLR,SKC,0.00,WeatherDisplay:10.37,2013-05-28 20:10:00,
2013-05-28 16:11:00,88.7,25.1,28.14,SW,225,0.0,0.0,10,0.00,CLR,SKC,0.00,WeatherDisplay:10.37,2013-05-28 20:11:00,
2013-05-28 16:12:00,88.5,25.0,28.14,South,180,0.0,0.0,10,0.00,CLR,SKC,0.00,WeatherDisplay:10.37,2013-05-28 20:12:00,
2013-05-28 16:15:00,88.5,25.0,28.14,SW,225,0.0,0.0,10,0.00,CLR,SKC,0.00,WeatherDisplay:10.37,2013-05-28 20:15:00,
2013-05-28 16:16:00,88.3,24.8,28.14,SW,225,0.0,0.0,10,0.00,CLR,SKC,0.00,WeatherDisplay:10.37,2013-05-28 20:16:00,
2013-05-28 16:17:00,88.3,24.8,28.14,SW,225,0.0,0.0,10,0.00,CLR,SKC,0.00,WeatherDisplay:10.37,2013-05-28 20:17:00,
2013-05-28 16:20:00,88.0,24.6,28.14,South,180,0.0,0.0,10,0.00,CLR,SKC,0.00,WeatherDisplay:10.37,2013-05-28 20:20:00,
2013-05-28 16:21:00,88.0,24.6,28.15,ENE,68,0.0,0.0,10,0.00,CLR,SKC,0.00,WeatherDisplay:10.37,2013-05-28 20:21:00,
2013-05-28 16:22:00,88.0,24.6,28.15,ENE,68,0.0,0.0,10,0.00,CLR,SKC,0.00,WeatherDisplay:10.37,2013-05-28 20:22:00,
2013-05-28 16:25:00,88.0,24.6,28.14,SE,135,0.0,0.0,10,0.00,CLR,SKC,0.00,WeatherDisplay:10.37,2013-05-28 20:25:00,
2013-05-28 16:26:00,88.0,24.6,28.14,West,270,0.0,0.0,10,0.00,CLR,SKC,0.00,WeatherDisplay:10.37,2013-05-28 20:26:00,
2013-05-28 16:27:00,88.0,24.6,28.14,SW,225,0.0,1.6,10,0.00,CLR,SKC,0.00,WeatherDisplay:10.37,2013-05-28 20:27:00,
2013-05-28 16:28:00,87.8,24.4,28.14,ENE,68,5.8,0.0,10,0.00,CLR,SKC,0.00,WeatherDisplay:10.37,2013-05-28 20:28:00,
2013-05-28 16:30:00,87.3,24.0,28.14,SE,135,3.5,3.5,10,0.00,CLR,SKC,0.00,WeatherDisplay:10.37,2013-05-28 20:30:00,
2013-05-28 16:31:00,87.3,24.0,28.14,SE,135,3.5,3.5,10,0.00,CLR,SKC,0.00,WeatherDisplay:10.37,2013-05-28 20:31:00,
2013-05-28 16:32:00,86.9,23.8,28.15,SE,135,3.5,0.0,10,0.00,CLR,SKC,0.00,WeatherDisplay:10.37,2013-05-28 20:32:00,
2013-05-28 16:33:00,86.5,23.5,28.14,South,180,3.5,0.0,10,0.00,CLR,SKC,0.00,WeatherDisplay:10.37,2013-05-28 20:33:00,
2013-05-28 16:35:00,86.0,23.1,28.14,SW,225,1.1,0.0,10,0.00,CLR,SKC,0.00,WeatherDisplay:10.37,2013-05-28 20:35:00,
2013-05-28 16:36:00,85.8,22.9,28.15,SE,135,1.1,0.0,10,0.00,CLR,SKC,0.00,WeatherDisplay:10.37,2013-05-28 20:36:00,
2013-05-28 16:37:00,85.6,22.8,28.14,SE,135,0.0,0.0,10,0.00,CLR,SKC,0.00,WeatherDisplay:10.37,2013-05-28 20:37:00,
2013-05-28 16:38:00,85.5,22.7,28.14,SW,225,0.0,0.0,10,0.00,CLR,SKC,0.00,WeatherDisplay:10.37,2013-05-28 20:38:00,
2013-05-28 16:40:00,85.6,22.8,28.15,West,270,0.0,0.0,10,0.00,CLR,SKC,0.00,WeatherDisplay:10.37,2013-05-28 20:40:00,
2013-05-28 16:41:00,85.5,22.7,28.15,South,180,1.1,0.0,10,0.00,CLR,SKC,0.00,WeatherDisplay:10.37,2013-05-28 20:41:00,
2013-05-28 16:42:00,85.3,22.5,28.14,SE,135,1.1,3.1,10,0.00,CLR,SKC,0.00,WeatherDisplay:10.37,2013-05-28 20:42:00,
2013-05-28 16:43:00,85.1,22.4,28.15,SSW,202,10.4,10.4,10,0.00,CLR,SKC,0.00,WeatherDisplay:10.37,2013-05-28 20:43:00,
2013-05-28 16:46:00,85.1,22.4,28.15,West,270,0.0,0.0,10,0.00,CLR,SKC,0.00,WeatherDisplay:10.37,2013-05-28 20:46:00,
2013-05-28 16:47:00,85.1,22.4,28.14,West,270,0.0,0.0,10,0.00,CLR,SKC,0.00,WeatherDisplay:10.37,2013-05-28 20:47:00,
2013-05-28 16:48:00,85.1,22.4,28.15,SSE,158,0.0,0.0,10,0.00,CLR,SKC,0.00,WeatherDisplay:10.37,2013-05-28 20:48:00,
2013-05-28 16:51:00,85.3,22.5,28.14,SE,135,0.0,0.0,10,0.00,CLR,SKC,0.00,WeatherDisplay:10.37,2013-05-28 20:51:00,
2013-05-28 16:52:00,85.3,22.5,28.14,SE,135,0.0,0.0,10,0.00,CLR,SKC,0.00,WeatherDisplay:10.37,2013-05-28 20:52:00,
2013-05-28 16:53:00,85.3,22.5,28.15,South,180,0.0,0.0,10,0.00,CLR,SKC,0.00,WeatherDisplay:10.37,2013-05-28 20:53:00,
2013-05-28 16:57:00,85.5,22.7,28.15,West,270,0.0,0.0,10,0.00,CLR,SKC,0.00,WeatherDisplay:10.37,2013-05-28 20:57:00,
2013-05-28 16:58:00,85.3,22.5,28.14,NE,45,0.0,0.0,10,0.00,CLR,SKC,0.00,WeatherDisplay:10.37,2013-05-28 20:58:00,
2013-05-28 17:02:00,85.3,22.5,28.14,SE,135,0.0,0.0,10,0.00,CLR,SKC,0.00,WeatherDisplay:10.37,2013-05-28 21:02:00,
2013-05-28 17:03:00,85.3,22.5,28.14,SE,135,0.0,0.0,10,0.00,CLR,SKC,0.00,WeatherDisplay:10.37,2013-05-28 21:03:00,
2013-05-28 17:07:00,85.3,22.5,28.14,SE,135,0.0,0.0,10,0.00,CLR,SKC,0.00,WeatherDisplay:10.37,2013-05-28 21:07:00,
2013-05-28 17:08:00,84.9,22.2,28.14,SE,135,1.1,0.0,10,0.00,CLR,SKC,0.00,WeatherDisplay:10.37,2013-05-28 21:08:00,
2013-05-28 17:09:00,84.7,22.1,28.14,SE,135,1.1,0.0,10,0.00,CLR,SKC,0.00,WeatherDisplay:10.37,2013-05-28 21:09:00,
2013-05-28 17:12:00,84.0,21.6,28.14,SE,135,0.0,0.0,10,0.00,CLR,SKC,0.00,WeatherDisplay:10.37,2013-05-28 21:12:00,
2013-05-28 17:13:00,84.0,21.6,28.14,SE,135,0.0,0.0,10,0.00,CLR,SKC,0.00,WeatherDisplay:10.37,2013-05-28 21:13:00,
2013-05-28 17:14:00,84.0,21.6,28.14,South,180,0.0,0.0,10,0.00,CLR,SKC,0.00,WeatherDisplay:10.37,2013-05-28 21:14:00,
2013-05-28 17:18:00,83.7,21.3,28.15,NNW,338,0.0,0.0,10,0.00,CLR,SKC,0.00,WeatherDisplay:10.37,2013-05-28 21:18:00,
2013-05-28 17:19:00,83.7,21.3,28.15,SE,135,0.0,0.0,10,0.00,CLR,SKC,0.00,WeatherDisplay:10.37,2013-05-28 21:19:00,
2013-05-28 17:23:00,83.1,20.9,28.14,South,180,0.0,0.0,10,0.00,CLR,SKC,0.00,WeatherDisplay:10.37,2013-05-28 21:23:00,
2013-05-28 17:24:00,83.3,21.0,28.14,South,180,1.1,0.0,10,0.00,CLR,SKC,0.00,WeatherDisplay:10.37,2013-05-28 21:24:00,
2013-05-28 17:28:00,84.0,21.6,28.14,South,180,0.0,0.0,10,0.00,CLR,SKC,0.00,WeatherDisplay:10.37,2013-05-28 21:28:00,
2013-05-28 17:29:00,84.0,21.6,28.14,South,180,0.0,0.0,10,0.00,CLR,SKC,0.00,WeatherDisplay:10.37,2013-05-28 21:29:00,
2013-05-28 17:30:00,84.0,21.6,28.14,SSE,154,0.0,1.0,10,0.00,CLR,SKC,0.00,WeatherDisplay:10.37,2013-05-28 21:30:00,
2013-05-28 17:33:00,83.8,21.4,28.14,SW,225,0.0,0.0,10,0.00,CLR,SKC,0.00,WeatherDisplay:10.37,2013-05-28 21:33:00,
2013-05-28 17:34:00,83.7,21.3,28.13,South,180,0.0,0.0,10,0.00,CLR,SKC,0.00,WeatherDisplay:10.37,2013-05-28 21:34:00,
2013-05-28 17:35:00,83.7,21.3,28.14,NE,45,0.0,0.0,10,0.00,CLR,SKC,0.00,WeatherDisplay:10.37,2013-05-28 21:35:00,
2013-05-28 17:39:00,83.3,21.0,28.13,SE,135,1.1,0.0,10,0.00,CLR,SKC,0.00,WeatherDisplay:10.37,2013-05-28 21:39:00,
2013-05-28 17:40:00,83.3,21.0,28.14,South,180,0.0,0.0,10,0.00,CLR,SKC,0.00,WeatherDisplay:10.37,2013-05-28 21:40:00,
2013-05-28 17:44:00,82.8,20.6,28.14,NE,45,0.0,0.0,10,0.00,CLR,SKC,0.00,WeatherDisplay:10.37,2013-05-28 21:44:00,
2013-05-28 17:45:00,82.9,20.7,28.14,West,270,0.0,0.0,10,0.00,CLR,SKC,0.00,WeatherDisplay:10.37,2013-05-28 21:45:00,
2013-05-28 17:49:00,83.1,20.9,28.14,SE,135,1.1,0.0,10,0.00,CLR,SKC,0.00,WeatherDisplay:10.37,2013-05-28 21:49:00,
2013-05-28 17:50:00,83.1,20.9,28.14,SE,135,1.1,0.0,10,0.00,CLR,SKC,0.00,WeatherDisplay:10.37,2013-05-28 21:50:00,
2013-05-28 17:54:00,82.8,20.6,28.14,SE,135,0.0,0.0,10,0.00,CLR,SKC,0.00,WeatherDisplay:10.37,2013-05-28 21:54:00,
2013-05-28 17:55:00,82.8,20.6,28.13,South,180,0.0,0.0,10,0.00,CLR,SKC,0.00,WeatherDisplay:10.37,2013-05-28 21:55:00,
2013-05-28 18:00:00,82.6,20.5,28.14,SSE,162,0.0,1.0,10,0.00,CLR,SKC,0.00,WeatherDisplay:10.37,2013-05-28 22:00:00,
2013-05-28 18:01:00,82.6,20.5,28.13,SE,135,0.0,0.0,10,0.00,CLR,SKC,0.00,WeatherDisplay:10.37,2013-05-28 22:01:00,
2013-05-28 18:05:00,82.6,20.5,28.13,SE,135,0.0,0.0,10,0.00,CLR,SKC,0.00,WeatherDisplay:10.37,2013-05-28 22:05:00,
2013-05-28 18:06:00,82.6,20.5,28.13,SE,135,0.0,0.0,10,0.00,CLR,SKC,0.00,WeatherDisplay:10.37,2013-05-28 22:06:00,
2013-05-28 18:10:00,82.8,20.6,28.13,SE,135,0.0,0.0,10,0.00,CLR,SKC,0.00,WeatherDisplay:10.37,2013-05-28 22:10:00,
2013-05-28 18:11:00,82.8,20.6,28.14,South,180,0.0,0.0,10,0.00,CLR,SKC,0.00,WeatherDisplay:10.37,2013-05-28 22:11:00,
2013-05-28 18:15:00,82.9,20.7,28.14,SE,135,0.0,0.0,10,0.00,CLR,SKC,0.00,WeatherDisplay:10.37,2013-05-28 22:15:00,
2013-05-28 18:16:00,82.9,20.7,28.13,South,180,0.0,0.0,10,0.00,CLR,SKC,0.00,WeatherDisplay:10.37,2013-05-28 22:16:00,
2013-05-28 18:20:00,83.1,20.9,28.13,ENE,68,0.0,0.0,10,0.00,CLR,SKC,0.00,WeatherDisplay:10.37,2013-05-28 22:20:00,
2013-05-28 18:21:00,83.3,21.0,28.13,NW,315,0.0,0.0,10,0.00,CLR,SKC,0.00,WeatherDisplay:10.37,2013-05-28 22:21:00,
2013-05-28 18:25:00,82.9,20.7,28.13,SE,135,1.1,0.0,10,0.00,CLR,SKC,0.00,WeatherDisplay:10.37,2013-05-28 22:25:00,
2013-05-28 18:26:00,82.9,20.7,28.13,SE,135,1.1,0.0,10,0.00,CLR,SKC,0.00,WeatherDisplay:10.37,2013-05-28 22:26:00,
2013-05-28 18:30:00,82.8,20.6,28.13,SE,135,1.1,0.0,10,0.00,CLR,SKC,0.00,WeatherDisplay:10.37,2013-05-28 22:30:00,
2013-05-28 18:31:00,82.6,20.5,28.13,SE,135,0.0,0.0,10,0.00,CLR,SKC,0.00,WeatherDisplay:10.37,2013-05-28 22:31:00,
2013-05-28 18:32:00,82.4,20.3,28.13,SE,135,0.0,0.0,10,0.00,CLR,SKC,0.00,WeatherDisplay:10.37,2013-05-28 22:32:00,
2013-05-28 18:35:00,82.4,20.3,28.13,SE,135,0.0,0.0,10,0.00,CLR,SKC,0.00,WeatherDisplay:10.37,2013-05-28 22:35:00,
2013-05-28 18:36:00,82.4,20.3,28.13,SE,135,0.0,0.0,10,0.00,CLR,SKC,0.00,WeatherDisplay:10.37,2013-05-28 22:36:00,
2013-05-28 18:37:00,82.4,20.3,28.13,SE,135,0.0,0.0,10,0.00,CLR,SKC,0.00,WeatherDisplay:10.37,2013-05-28 22:37:00,
2013-05-28 18:40:00,81.7,19.8,28.13,South,180,0.0,0.0,10,0.00,CLR,SKC,0.00,WeatherDisplay:10.37,2013-05-28 22:40:00,
2013-05-28 18:41:00,81.5,19.6,28.13,SE,135,0.0,0.0,10,0.00,CLR,SKC,0.00,WeatherDisplay:10.37,2013-05-28 22:41:00,
2013-05-28 18:42:00,81.5,19.6,28.13,SE,135,0.0,0.0,10,0.00,CLR,SKC,0.00,WeatherDisplay:10.37,2013-05-28 22:42:00,
2013-05-28 18:46:00,81.1,19.4,28.13,SE,135,0.0,0.0,10,0.00,CLR,SKC,0.00,WeatherDisplay:10.37,2013-05-28 22:46:00,
2013-05-28 18:47:00,81.0,19.2,28.13,SE,135,0.0,0.0,10,0.00,CLR,SKC,0.00,WeatherDisplay:10.37,2013-05-28 22:47:00,
2013-05-28 18:51:00,80.8,19.1,28.13,SE,135,0.0,0.0,10,0.00,CLR,SKC,0.00,WeatherDisplay:10.37,2013-05-28 22:51:00,
2013-05-28 18:52:00,80.8,19.1,28.12,NE,45,0.0,0.0,10,0.00,CLR,SKC,0.00,WeatherDisplay:10.37,2013-05-28 22:52:00,
2013-05-28 18:53:00,80.8,19.1,28.13,ENE,68,0.0,0.0,10,0.00,CLR,SKC,0.00,WeatherDisplay:10.37,2013-05-28 22:53:00,
2013-05-28 18:56:00,80.8,19.1,28.13,SE,135,0.0,0.0,10,0.00,CLR,SKC,0.00,WeatherDisplay:10.37,2013-05-28 22:56:00,
2013-05-28 18:57:00,81.0,19.2,28.13,SE,135,0.0,0.0,10,0.00,CLR,SKC,0.00,WeatherDisplay:10.37,2013-05-28 22:57:00,
2013-05-28 18:58:00,80.8,19.1,28.14,ENE,68,0.0,0.0,10,0.00,CLR,SKC,0.00,WeatherDisplay:10.37,2013-05-28 22:58:00,
2013-05-28 19:01:00,81.0,19.2,28.13,SE,135,0.0,0.0,10,0.00,CLR,SKC,0.00,WeatherDisplay:10.37,2013-05-28 23:01:00,
2013-05-28 19:02:00,81.0,19.2,28.13,SE,135,0.0,0.0,10,0.00,CLR,SKC,0.00,WeatherDisplay:10.37,2013-05-28 23:02:00,
2013-05-28 19:03:00,81.0,19.2,28.13,SE,135,0.0,0.0,10,0.00,CLR,SKC,0.00,WeatherDisplay:10.37,2013-05-28 23:03:00,
2013-05-28 19:04:00,81.0,19.2,28.14,SE,135,0.0,0.0,10,0.00,CLR,SKC,0.00,WeatherDisplay:10.37,2013-05-28 23:04:00,
2013-05-28 19:06:00,81.0,19.2,28.13,SE,135,0.0,0.0,10,0.00,CLR,SKC,0.00,WeatherDisplay:10.37,2013-05-28 23:06:00,
2013-05-28 19:07:00,81.0,19.2,28.13,SE,135,0.0,0.0,10,0.00,CLR,SKC,0.00,WeatherDisplay:10.37,2013-05-28 23:07:00,
2013-05-28 19:08:00,80.4,18.8,28.13,West,270,0.0,0.0,10,0.00,CLR,SKC,0.00,WeatherDisplay:10.37,2013-05-28 23:08:00,
2013-05-28 19:09:00,80.2,18.7,28.13,SW,225,0.0,0.0,10,0.00,CLR,SKC,0.00,WeatherDisplay:10.37,2013-05-28 23:09:00,
2013-05-28 19:11:00,80.2,18.7,28.13,SE,135,0.0,0.0,10,0.00,CLR,SKC,0.00,WeatherDisplay:10.37,2013-05-28 23:11:00,
2013-05-28 19:12:00,80.2,18.7,28.13,SE,135,0.0,0.0,10,0.00,CLR,SKC,0.00,WeatherDisplay:10.37,2013-05-28 23:12:00,
2013-05-28 19:13:00,80.2,18.7,28.13,SE,135,0.0,0.0,10,0.00,CLR,SKC,0.00,WeatherDisplay:10.37,2013-05-28 23:13:00,
2013-05-28 19:14:00,80.1,18.5,28.13,SW,225,0.0,0.0,10,0.00,CLR,SKC,0.00,WeatherDisplay:10.37,2013-05-28 23:14:00,
2013-05-28 19:16:00,80.1,18.5,28.14,SE,135,0.0,0.0,10,0.00,CLR,SKC,0.00,WeatherDisplay:10.37,2013-05-28 23:16:00,
2013-05-28 19:17:00,80.1,18.5,28.14,SE,135,0.0,0.0,10,0.00,CLR,SKC,0.00,WeatherDisplay:10.37,2013-05-28 23:17:00,
2013-05-28 19:18:00,80.1,18.5,28.14,SW,225,3.5,0.0,10,0.00,CLR,SKC,0.00,WeatherDisplay:10.37,2013-05-28 23:18:00,
2013-05-28 19:19:00,80.1,18.5,28.14,South,180,3.5,0.0,10,0.00,CLR,SKC,0.00,WeatherDisplay:10.37,2013-05-28 23:19:00,
2013-05-28 19:21:00,79.7,18.3,28.14,SE,135,0.0,0.0,10,0.00,CLR,SKC,0.00,WeatherDisplay:10.37,2013-05-28 23:21:00,
2013-05-28 19:23:00,79.7,18.3,28.14,ENE,68,0.0,0.0,10,0.00,CLR,SKC,0.00,WeatherDisplay:10.37,2013-05-28 23:23:00,
2013-05-28 19:24:00,79.7,18.3,28.14,SSE,158,1.1,0.0,10,0.00,CLR,SKC,0.00,WeatherDisplay:10.37,2013-05-28 23:24:00,
2013-05-28 19:27:00,79.5,18.1,28.13,ENE,68,0.0,0.0,10,0.00,CLR,SKC,0.00,WeatherDisplay:10.37,2013-05-28 23:27:00,
2013-05-28 19:28:00,79.3,18.0,28.13,ENE,68,1.1,0.0,10,0.00,CLR,SKC,0.00,WeatherDisplay:10.37,2013-05-28 23:28:00,
2013-05-28 19:29:00,79.3,18.0,28.13,South,180,1.1,0.0,10,0.00,CLR,SKC,0.00,WeatherDisplay:10.37,2013-05-28 23:29:00,
2013-05-28 19:33:00,79.2,17.9,28.14,SW,225,0.0,0.0,10,0.00,CLR,SKC,0.00,WeatherDisplay:10.37,2013-05-28 23:33:00,
2013-05-28 19:34:00,79.0,17.7,28.14,NE,45,0.0,0.0,10,0.00,CLR,SKC,0.00,WeatherDisplay:10.37,2013-05-28 23:34:00,
2013-05-28 19:38:00,79.0,17.7,28.14,South,180,0.0,0.0,10,0.00,CLR,SKC,0.00,WeatherDisplay:10.37,2013-05-28 23:38:00,
2013-05-28 19:39:00,78.8,17.6,28.15,SE,135,0.0,0.0,10,0.00,CLR,SKC,0.00,WeatherDisplay:10.37,2013-05-28 23:39:00,
2013-05-28 19:40:00,78.6,17.4,28.15,SE,135,0.0,0.0,10,0.00,CLR,SKC,0.00,WeatherDisplay:10.37,2013-05-28 23:40:00,
2013-05-28 19:43:00,78.6,17.4,28.15,SE,135,1.1,0.0,10,0.00,CLR,SKC,0.00,WeatherDisplay:10.37,2013-05-28 23:43:00,
2013-05-28 19:44:00,78.4,17.3,28.15,SE,135,1.1,2.2,10,0.00,CLR,SKC,0.00,WeatherDisplay:10.37,2013-05-28 23:44:00,
2013-05-28 19:46:00,78.4,17.3,28.15,SE,135,1.1,0.0,10,0.00,CLR,SKC,0.00,WeatherDisplay:10.37,2013-05-28 23:46:00,
2013-05-28 19:48:00,78.3,17.2,28.15,SE,135,0.0,0.0,10,0.00,CLR,SKC,0.00,WeatherDisplay:10.37,2013-05-28 23:48:00,
2013-05-28 19:49:00,78.3,17.2,28.14,SE,135,0.0,0.0,10,0.00,CLR,SKC,0.00,WeatherDisplay:10.37,2013-05-28 23:49:00,
2013-05-28 19:50:00,78.3,17.2,28.14,SE,135,1.1,0.0,10,0.00,CLR,SKC,0.00,WeatherDisplay:10.37,2013-05-28 23:50:00,
2013-05-28 19:51:00,78.3,17.2,28.15,SE,135,0.0,0.0,10,0.00,CLR,SKC,0.00,WeatherDisplay:10.37,2013-05-28 23:51:00,
2013-05-28 19:54:00,78.1,17.0,28.14,SE,135,0.0,0.0,10,0.00,CLR,SKC,0.00,WeatherDisplay:10.37,2013-05-28 23:54:00,
2013-05-28 19:55:00,78.1,17.0,28.15,SE,135,0.0,0.0,10,0.00,CLR,SKC,0.00,WeatherDisplay:10.37,2013-05-28 23:55:00,
2013-05-28 19:56:00,78.1,17.0,28.15,SE,135,0.0,0.0,10,0.00,CLR,SKC,0.00,WeatherDisplay:10.37,2013-05-28 23:56:00,
2013-05-28 19:59:00,77.7,16.8,28.15,South,180,0.0,0.0,10,0.00,CLR,SKC,0.00,WeatherDisplay:10.37,2013-05-28 23:59:00,
2013-05-28 20:00:00,77.7,16.8,28.15,SE,135,0.0,0.0,10,0.00,CLR,SKC,0.00,WeatherDisplay:10.37,2013-05-29 00:00:00,
2013-05-28 20:02:00,77.7,16.8,28.15,SE,135,0.0,0.0,10,0.00,CLR,SKC,0.00,WeatherDisplay:10.37,2013-05-29 00:02:00,
2013-05-28 20:04:00,77.7,16.8,28.15,SE,135,0.0,0.0,10,0.00,CLR,SKC,0.00,WeatherDisplay:10.37,2013-05-29 00:04:00,
2013-05-28 20:05:00,77.7,16.8,28.15,SE,135,0.0,0.0,10,0.00,CLR,SKC,0.00,WeatherDisplay:10.37,2013-05-29 00:05:00,
2013-05-28 20:07:00,77.7,16.8,28.15,SE,135,0.0,0.0,10,0.00,CLR,SKC,0.00,WeatherDisplay:10.37,2013-05-29 00:07:00,
2013-05-28 20:10:00,77.7,16.8,28.15,SE,135,0.0,0.0,10,0.00,CLR,SKC,0.00,WeatherDisplay:10.37,2013-05-29 00:10:00,
2013-05-28 20:12:00,77.2,16.3,28.15,SE,135,0.0,0.0,10,0.00,CLR,SKC,0.00,WeatherDisplay:10.37,2013-05-29 00:12:00,
2013-05-28 20:15:00,77.0,16.2,28.14,SE,135,0.0,0.0,10,0.00,CLR,SKC,0.00,WeatherDisplay:10.37,2013-05-29 00:15:00,
2013-05-28 20:17:00,77.0,16.2,28.14,SE,135,0.0,0.0,10,0.00,CLR,SKC,0.00,WeatherDisplay:10.37,2013-05-29 00:17:00,
2013-05-28 20:20:00,76.6,15.9,28.15,SE,135,0.0,0.0,10,0.00,CLR,SKC,0.00,WeatherDisplay:10.37,2013-05-29 00:20:00,
2013-05-28 20:21:00,76.6,15.9,28.15,SE,135,0.0,0.0,10,0.00,CLR,SKC,0.00,WeatherDisplay:10.37,2013-05-29 00:21:00,
2013-05-28 20:22:00,76.5,15.8,28.15,SE,135,0.0,0.0,10,0.00,CLR,SKC,0.00,WeatherDisplay:10.37,2013-05-29 00:22:00,
2013-05-28 20:25:00,76.3,15.7,28.15,SE,135,0.0,0.0,10,0.00,CLR,SKC,0.00,WeatherDisplay:10.37,2013-05-29 00:25:00,
2013-05-28 20:26:00,76.3,15.7,28.15,SE,135,1.1,0.0,10,0.00,CLR,SKC,0.00,WeatherDisplay:10.37,2013-05-29 00:26:00,
2013-05-28 20:27:00,75.9,15.4,28.15,SE,135,0.0,0.0,10,0.00,CLR,SKC,0.00,WeatherDisplay:10.37,2013-05-29 00:27:00,
2013-05-28 20:30:00,75.9,15.4,28.15,SE,135,0.0,0.0,10,0.00,CLR,SKC,0.00,WeatherDisplay:10.37,2013-05-29 00:30:00,
2013-05-28 20:31:00,75.9,15.4,28.15,SE,135,0.0,0.0,10,0.00,CLR,SKC,0.00,WeatherDisplay:10.37,2013-05-29 00:31:00,
2013-05-28 20:32:00,75.7,15.2,28.15,SE,135,0.0,0.0,10,0.00,CLR,SKC,0.00,WeatherDisplay:10.37,2013-05-29 00:32:00,
2013-05-28 20:36:00,75.4,15.0,28.15,SE,135,1.1,0.0,10,0.00,CLR,SKC,0.00,WeatherDisplay:10.37,2013-05-29 00:36:00,
2013-05-28 20:37:00,75.4,15.0,28.15,South,180,1.1,0.0,10,0.00,CLR,SKC,0.00,WeatherDisplay:10.37,2013-05-29 00:37:00,
2013-05-28 20:41:00,75.4,15.0,28.14,SE,135,2.3,0.0,10,0.00,CLR,SKC,0.00,WeatherDisplay:10.37,2013-05-29 00:41:00,
2013-05-28 20:42:00,75.4,15.0,28.15,SE,135,0.0,0.0,10,0.00,CLR,SKC,0.00,WeatherDisplay:10.37,2013-05-29 00:42:00,
2013-05-28 20:46:00,75.4,15.0,28.15,SE,135,1.1,0.0,10,0.00,CLR,SKC,0.00,WeatherDisplay:10.37,2013-05-29 00:46:00,
2013-05-28 20:47:00,75.4,15.0,28.15,SE,135,1.1,0.0,10,0.00,CLR,SKC,0.00,WeatherDisplay:10.37,2013-05-29 00:47:00,
2013-05-28 20:51:00,75.6,15.1,28.15,SE,135,3.5,0.0,10,0.00,CLR,SKC,0.00,WeatherDisplay:10.37,2013-05-29 00:51:00,
2013-05-28 20:52:00,75.6,15.1,28.15,SE,135,3.5,0.0,10,0.00,CLR,SKC,0.00,WeatherDisplay:10.37,2013-05-29 00:52:00,
2013-05-28 20:53:00,75.6,15.1,28.14,South,180,3.5,0.0,10,0.00,CLR,SKC,0.00,WeatherDisplay:10.37,2013-05-29 00:53:00,
2013-05-28 20:57:00,75.6,15.1,28.15,SE,135,0.0,0.0,10,0.00,CLR,SKC,0.00,WeatherDisplay:10.37,2013-05-29 00:57:00,
2013-05-28 20:58:00,75.6,15.1,28.14,SE,135,1.1,0.0,10,0.00,CLR,SKC,0.00,WeatherDisplay:10.37,2013-05-29 00:58:00,
2013-05-28 21:02:00,75.4,15.0,28.15,SE,135,0.0,0.0,10,0.00,CLR,SKC,0.00,WeatherDisplay:10.37,2013-05-29 01:02:00,
2013-05-28 21:03:00,75.4,15.0,28.14,SE,135,0.0,0.0,10,0.00,CLR,SKC,0.00,WeatherDisplay:10.37,2013-05-29 01:03:00,
2013-05-28 21:07:00,75.4,15.0,28.15,SE,135,0.0,0.0,10,0.00,CLR,SKC,0.00,WeatherDisplay:10.37,2013-05-29 01:07:00,
2013-05-28 21:08:00,75.4,15.0,28.15,SE,135,0.0,0.0,10,0.00,CLR,SKC,0.00,WeatherDisplay:10.37,2013-05-29 01:08:00,
2013-05-28 21:12:00,75.4,15.0,28.15,SE,135,1.1,0.0,10,0.00,CLR,SKC,0.00,WeatherDisplay:10.37,2013-05-29 01:12:00,
2013-05-28 21:13:00,75.4,15.0,28.14,SE,135,0.0,0.0,10,0.00,CLR,SKC,0.00,WeatherDisplay:10.37,2013-05-29 01:13:00,
2013-05-28 21:17:00,75.2,14.8,28.14,SSW,202,0.0,0.0,10,0.00,CLR,SKC,0.00,WeatherDisplay:10.37,2013-05-29 01:17:00,
2013-05-28 21:18:00,75.2,14.8,28.14,SSW,202,0.0,0.0,10,0.00,CLR,SKC,0.00,WeatherDisplay:10.37,2013-05-29 01:18:00,
2013-05-28 21:22:00,75.0,14.7,28.14,South,180,0.0,0.0,10,0.00,CLR,SKC,0.00,WeatherDisplay:10.37,2013-05-29 01:22:00,
2013-05-28 21:23:00,75.0,14.7,28.14,South,180,1.1,0.0,10,0.00,CLR,SKC,0.00,WeatherDisplay:10.37,2013-05-29 01:23:00,
2013-05-28 21:24:00,75.0,14.7,28.14,South,180,1.1,0.0,10,0.00,CLR,SKC,0.00,WeatherDisplay:10.37,2013-05-29 01:24:00,
2013-05-28 21:28:00,74.7,14.4,28.14,NE,45,0.0,0.0,10,0.00,CLR,SKC,0.00,WeatherDisplay:10.37,2013-05-29 01:28:00,
2013-05-28 21:29:00,74.5,14.3,28.15,NE,45,0.0,0.0,10,0.00,CLR,SKC,0.00,WeatherDisplay:10.37,2013-05-29 01:29:00,
2013-05-28 21:33:00,74.3,14.1,28.14,SE,135,8.1,8.1,10,0.00,CLR,SKC,0.00,WeatherDisplay:10.37,2013-05-29 01:33:00,
2013-05-28 21:34:00,74.3,14.1,28.15,ENE,68,5.8,0.0,10,0.00,CLR,SKC,0.00,WeatherDisplay:10.37,2013-05-29 01:34:00,
2013-05-28 21:38:00,74.1,14.0,28.15,SE,135,0.0,0.0,10,0.00,CLR,SKC,0.00,WeatherDisplay:10.37,2013-05-29 01:38:00,
2013-05-28 21:39:00,74.1,14.0,28.15,NNE,22,1.1,0.0,10,0.00,CLR,SKC,0.00,WeatherDisplay:10.37,2013-05-29 01:39:00,
2013-05-28 21:40:00,74.1,14.0,28.15,SE,135,1.1,0.0,10,0.00,CLR,SKC,0.00,WeatherDisplay:10.37,2013-05-29 01:40:00,
2013-05-28 21:43:00,74.1,14.0,28.15,ENE,68,5.8,0.0,10,0.00,CLR,SKC,0.00,WeatherDisplay:10.37,2013-05-29 01:43:00,
2013-05-28 21:44:00,74.1,14.0,28.15,ENE,68,1.1,0.0,10,0.00,CLR,SKC,0.00,WeatherDisplay:10.37,2013-05-29 01:44:00,
2013-05-28 21:45:00,74.1,16.2,28.15,SW,225,0.0,0.0,11,0.00,CLR,SKC,0.00,WeatherDisplay:10.37,2013-05-29 01:45:00,
2013-05-28 21:48:00,74.1,16.2,28.15,SE,135,1.1,0.0,11,0.00,CLR,SKC,0.00,WeatherDisplay:10.37,2013-05-29 01:48:00,
2013-05-28 21:49:00,74.1,16.2,28.15,SE,135,1.1,0.0,11,0.00,CLR,SKC,0.00,WeatherDisplay:10.37,2013-05-29 01:49:00,
2013-05-28 21:50:00,74.1,16.2,28.15,North,0,0.0,0.0,11,0.00,CLR,SKC,0.00,WeatherDisplay:10.37,2013-05-29 01:50:00,
2013-05-28 21:53:00,73.9,18.1,28.15,SE,135,3.5,0.0,12,0.00,CLR,SKC,0.00,WeatherDisplay:10.37,2013-05-29 01:53:00,
2013-05-28 21:54:00,73.9,18.1,28.15,NE,45,1.1,0.0,12,0.00,CLR,SKC,0.00,WeatherDisplay:10.37,2013-05-29 01:54:00,
2013-05-28 21:55:00,73.9,18.1,28.15,West,270,0.0,0.0,12,0.00,CLR,SKC,0.00,WeatherDisplay:10.37,2013-05-29 01:55:00,
2013-05-28 21:56:00,73.9,18.1,28.15,West,270,0.0,0.0,12,0.00,CLR,SKC,0.00,WeatherDisplay:10.37,2013-05-29 01:56:00,
2013-05-28 21:58:00,73.8,17.9,28.16,SE,135,0.0,0.0,12,0.00,CLR,SKC,0.00,WeatherDisplay:10.37,2013-05-29 01:58:00,
2013-05-28 21:59:00,73.8,17.9,28.16,SE,135,0.0,0.0,12,0.00,CLR,SKC,0.00,WeatherDisplay:10.37,2013-05-29 01:59:00,
2013-05-28 22:00:00,73.8,17.9,28.16,SE,135,0.0,0.0,12,0.00,CLR,SKC,0.00,WeatherDisplay:10.37,2013-05-29 02:00:00,
2013-05-28 22:02:00,73.8,17.9,28.16,SE,135,0.0,0.0,12,0.00,CLR,SKC,0.00,WeatherDisplay:10.37,2013-05-29 02:02:00,
2013-05-28 22:04:00,73.8,17.9,28.16,SE,135,0.0,0.0,12,0.00,CLR,SKC,0.00,WeatherDisplay:10.37,2013-05-29 02:04:00,
2013-05-28 22:05:00,73.8,17.9,28.16,SE,135,0.0,0.0,12,0.00,CLR,SKC,0.00,WeatherDisplay:10.37,2013-05-29 02:05:00,
2013-05-28 22:07:00,73.8,17.9,28.16,SE,135,0.0,0.0,12,0.00,CLR,SKC,0.00,WeatherDisplay:10.37,2013-05-29 02:07:00,
2013-05-28 22:09:00,73.6,19.7,28.17,WSW,248,3.5,0.0,13,0.00,CLR,SKC,0.00,WeatherDisplay:10.37,2013-05-29 02:09:00,
2013-05-28 22:10:00,73.6,21.4,28.16,West,270,0.0,0.0,14,0.00,CLR,SKC,0.00,WeatherDisplay:10.37,2013-05-29 02:10:00,
2013-05-28 22:12:00,73.6,21.4,28.16,ENE,68,1.1,0.0,14,0.00,CLR,SKC,0.00,WeatherDisplay:10.37,2013-05-29 02:12:00,
2013-05-28 22:14:00,73.6,19.7,28.16,SE,135,0.0,0.0,13,0.00,CLR,SKC,0.00,WeatherDisplay:10.37,2013-05-29 02:14:00,
2013-05-28 22:15:00,73.4,21.3,28.16,SW,225,1.1,0.0,14,0.00,CLR,SKC,0.00,WeatherDisplay:10.37,2013-05-29 02:15:00,
2013-05-28 22:16:00,73.4,21.3,28.16,SW,225,1.1,0.0,14,0.00,CLR,SKC,0.00,WeatherDisplay:10.37,2013-05-29 02:16:00,
2013-05-28 22:17:00,73.4,21.3,28.16,North,0,1.1,0.0,14,0.00,CLR,SKC,0.00,WeatherDisplay:10.37,2013-05-29 02:17:00,
2013-05-28 22:19:00,73.4,22.9,28.17,WSW,248,0.0,0.0,15,0.00,CLR,SKC,0.00,WeatherDisplay:10.37,2013-05-29 02:19:00,
2013-05-28 22:20:00,73.4,22.9,28.17,WSW,248,0.0,0.0,15,0.00,CLR,SKC,0.00,WeatherDisplay:10.37,2013-05-29 02:20:00,
2013-05-28 22:21:00,73.2,22.8,28.17,ENE,68,0.0,0.0,15,0.00,CLR,SKC,0.00,WeatherDisplay:10.37,2013-05-29 02:21:00,
2013-05-28 22:22:00,73.0,21.0,28.17,ENE,68,0.0,0.0,14,0.00,CLR,SKC,0.00,WeatherDisplay:10.37,2013-05-29 02:22:00,
2013-05-28 22:25:00,72.7,22.3,28.17,ENE,68,0.0,0.0,15,0.00,CLR,SKC,0.00,WeatherDisplay:10.37,2013-05-29 02:25:00,
2013-05-28 22:26:00,72.5,25.2,28.17,ENE,68,0.0,0.0,17,0.00,CLR,SKC,0.00,WeatherDisplay:10.37,2013-05-29 02:26:00,
2013-05-28 22:27:00,72.3,25.0,28.17,ENE,68,0.0,0.0,17,0.00,CLR,SKC,0.00,WeatherDisplay:10.37,2013-05-29 02:27:00,
2013-05-28 22:30:00,71.8,26.0,28.17,ENE,68,0.0,0.0,18,0.00,CLR,SKC,0.00,WeatherDisplay:10.37,2013-05-29 02:30:00,
2013-05-28 22:31:00,71.8,27.3,28.17,ENE,68,0.0,0.0,19,0.00,CLR,SKC,0.00,WeatherDisplay:10.37,2013-05-29 02:31:00,
2013-05-28 22:33:00,71.6,27.1,28.17,ENE,68,0.0,0.0,19,0.00,CLR,SKC,0.00,WeatherDisplay:10.37,2013-05-29 02:33:00,
2013-05-28 22:35:00,71.2,28.1,28.17,ENE,68,0.0,0.0,20,0.00,CLR,SKC,0.00,WeatherDisplay:10.37,2013-05-29 02:35:00,
2013-05-28 22:36:00,71.2,28.1,28.17,ENE,68,0.0,0.0,20,0.00,CLR,SKC,0.00,WeatherDisplay:10.37,2013-05-29 02:36:00,
2013-05-28 22:38:00,71.2,28.1,28.17,ENE,68,0.0,0.0,20,0.00,CLR,SKC,0.00,WeatherDisplay:10.37,2013-05-29 02:38:00,
2013-05-28 22:40:00,71.1,29.1,28.16,ENE,68,0.0,0.0,21,0.00,CLR,SKC,0.00,WeatherDisplay:10.37,2013-05-29 02:40:00,
2013-05-28 22:41:00,70.9,27.8,28.16,ENE,68,0.0,0.0,20,0.00,CLR,SKC,0.00,WeatherDisplay:10.37,2013-05-29 02:41:00,
2013-05-28 22:43:00,70.9,30.1,28.16,SE,135,0.0,0.0,22,0.00,CLR,SKC,0.00,WeatherDisplay:10.37,2013-05-29 02:43:00,
2013-05-28 22:45:00,71.4,29.4,28.16,SE,135,0.0,0.0,21,0.00,CLR,SKC,0.00,WeatherDisplay:10.37,2013-05-29 02:45:00,
2013-05-28 22:46:00,71.4,29.4,28.16,SE,135,0.0,0.0,21,0.00,CLR,SKC,0.00,WeatherDisplay:10.37,2013-05-29 02:46:00,
2013-05-28 22:48:00,71.8,29.7,28.16,SE,135,0.0,0.0,21,0.00,CLR,SKC,0.00,WeatherDisplay:10.37,2013-05-29 02:48:00,
2013-05-28 22:51:00,71.8,29.7,28.16,ENE,68,0.0,0.0,21,0.00,CLR,SKC,0.00,WeatherDisplay:10.37,2013-05-29 02:51:00,
2013-05-28 22:53:00,71.6,29.6,28.16,North,0,0.0,0.0,21,0.00,CLR,SKC,0.00,WeatherDisplay:10.37,2013-05-29 02:53:00,
2013-05-28 22:56:00,71.4,30.6,28.17,ENE,68,0.0,0.0,22,0.00,CLR,SKC,0.00,WeatherDisplay:10.37,2013-05-29 02:56:00,
2013-05-28 22:57:00,71.2,30.4,28.16,ENE,68,0.0,0.0,22,0.00,CLR,SKC,0.00,WeatherDisplay:10.37,2013-05-29 02:57:00,
2013-05-28 22:58:00,71.1,31.4,28.16,North,0,0.0,0.0,23,0.00,CLR,SKC,0.00,WeatherDisplay:10.37,2013-05-29 02:58:00,
2013-05-28 23:01:00,70.9,31.2,28.16,NE,45,0.0,0.0,23,0.00,CLR,SKC,0.00,WeatherDisplay:10.37,2013-05-29 03:01:00,
2013-05-28 23:02:00,70.9,31.2,28.16,NE,45,0.0,0.0,23,0.00,CLR,SKC,0.00,WeatherDisplay:10.37,2013-05-29 03:02:00,
2013-05-28 23:03:00,70.9,31.2,28.16,NE,45,0.0,0.0,23,0.00,CLR,SKC,0.00,WeatherDisplay:10.37,2013-05-29 03:03:00,
2013-05-28 23:06:00,70.9,31.2,28.16,NE,45,0.0,0.0,23,0.00,CLR,SKC,0.00,WeatherDisplay:10.37,2013-05-29 03:06:00,
2013-05-28 23:07:00,70.9,31.2,28.16,NE,45,0.0,0.0,23,0.00,CLR,SKC,0.00,WeatherDisplay:10.37,2013-05-29 03:07:00,
2013-05-28 23:09:00,70.9,32.3,28.16,NE,45,0.0,0.0,24,0.00,CLR,SKC,0.00,WeatherDisplay:10.37,2013-05-29 03:09:00,
2013-05-28 23:11:00,70.9,33.3,28.16,West,270,0.0,0.0,25,0.00,CLR,SKC,0.00,WeatherDisplay:10.37,2013-05-29 03:11:00,
2013-05-28 23:12:00,70.9,33.3,28.16,North,0,0.0,0.0,25,0.00,CLR,SKC,0.00,WeatherDisplay:10.37,2013-05-29 03:12:00,
2013-05-28 23:14:00,70.7,32.1,28.16,NE,45,0.0,0.0,24,0.00,CLR,SKC,0.00,WeatherDisplay:10.37,2013-05-29 03:14:00,
2013-05-28 23:16:00,70.7,33.1,28.16,West,270,0.0,0.0,25,0.00,CLR,SKC,0.00,WeatherDisplay:10.37,2013-05-29 03:16:00,
2013-05-28 23:17:00,70.9,33.3,28.16,NE,45,4.6,4.6,25,0.00,CLR,SKC,0.00,WeatherDisplay:10.37,2013-05-29 03:17:00,
2013-05-28 23:18:00,70.9,33.3,28.16,NE,45,5.8,0.0,25,0.00,CLR,SKC,0.00,WeatherDisplay:10.37,2013-05-29 03:18:00,
2013-05-28 23:19:00,70.9,33.3,28.16,NE,45,0.0,0.0,25,0.00,CLR,SKC,0.00,WeatherDisplay:10.37,2013-05-29 03:19:00,
2013-05-28 23:22:00,71.4,32.7,28.16,NW,315,4.6,0.0,24,0.00,CLR,SKC,0.00,WeatherDisplay:10.37,2013-05-29 03:22:00,
2013-05-28 23:23:00,71.6,32.9,28.16,NW,315,0.0,0.0,24,0.00,CLR,SKC,0.00,WeatherDisplay:10.37,2013-05-29 03:23:00,
2013-05-28 23:25:00,71.8,32.0,28.16,ENE,68,0.0,0.0,23,0.00,CLR,SKC,0.00,WeatherDisplay:10.37,2013-05-29 03:25:00,
2013-05-28 23:27:00,72.0,32.1,28.16,ENE,68,0.0,0.0,23,0.00,CLR,SKC,0.00,WeatherDisplay:10.37,2013-05-29 03:27:00,
2013-05-28 23:28:00,72.0,31.0,28.16,ENE,68,0.0,0.0,22,0.00,CLR,SKC,0.00,WeatherDisplay:10.37,2013-05-29 03:28:00,
2013-05-28 23:30:00,72.0,31.0,28.16,NE,45,0.0,0.0,22,0.00,CLR,SKC,0.00,WeatherDisplay:10.37,2013-05-29 03:30:00,
2013-05-28 23:32:00,72.0,32.1,28.17,NE,45,0.0,0.0,23,0.00,CLR,SKC,0.00,WeatherDisplay:10.37,2013-05-29 03:32:00,
2013-05-28 23:33:00,71.8,32.0,28.17,NE,45,0.0,0.0,23,0.00,CLR,SKC,0.00,WeatherDisplay:10.37,2013-05-29 03:33:00,
2013-05-28 23:34:00,71.8,30.9,28.17,NE,45,0.0,0.0,22,0.00,CLR,SKC,0.00,WeatherDisplay:10.37,2013-05-29 03:34:00,
2013-05-28 23:35:00,71.8,30.9,28.16,NE,45,0.0,0.0,22,0.00,CLR,SKC,0.00,WeatherDisplay:10.37,2013-05-29 03:35:00,
2013-05-28 23:38:00,71.8,32.0,28.17,NE,45,0.0,0.0,23,0.00,CLR,SKC,0.00,WeatherDisplay:10.37,2013-05-29 03:38:00,
2013-05-28 23:39:00,71.8,33.0,28.17,SE,135,0.0,0.0,24,0.00,CLR,SKC,0.00,WeatherDisplay:10.37,2013-05-29 03:39:00,
2013-05-28 23:40:00,72.0,33.2,28.17,SE,135,0.0,0.0,24,0.00,CLR,SKC,0.00,WeatherDisplay:10.37,2013-05-29 03:40:00,
2013-05-28 23:43:00,72.1,32.3,28.16,South,180,0.0,0.0,23,0.00,CLR,SKC,0.00,WeatherDisplay:10.37,2013-05-29 03:43:00,
2013-05-28 23:44:00,72.3,31.3,28.16,NE,45,0.0,0.0,22,0.00,CLR,SKC,0.00,WeatherDisplay:10.37,2013-05-29 03:44:00,
2013-05-28 23:45:00,72.3,31.3,28.16,SE,135,1.1,0.0,22,0.00,CLR,SKC,0.00,WeatherDisplay:10.37,2013-05-29 03:45:00,
2013-05-28 23:48:00,72.5,31.5,28.16,NE,45,0.0,0.0,22,0.00,CLR,SKC,0.00,WeatherDisplay:10.37,2013-05-29 03:48:00,
2013-05-28 23:49:00,72.7,31.6,28.16,NE,45,0.0,0.0,22,0.00,CLR,SKC,0.00,WeatherDisplay:10.37,2013-05-29 03:49:00,
2013-05-28 23:51:00,72.5,31.5,28.16,SE,135,0.0,0.0,22,0.00,CLR,SKC,0.00,WeatherDisplay:10.37,2013-05-29 03:51:00,
2013-05-28 23:53:00,72.3,31.3,28.16,ENE,68,5.8,0.0,22,0.00,CLR,SKC,0.00,WeatherDisplay:10.37,2013-05-29 03:53:00,
2013-05-28 23:54:00,72.3,31.3,28.16,ENE,68,1.1,0.0,22,0.00,CLR,SKC,0.00,WeatherDisplay:10.37,2013-05-29 03:54:00,
2013-05-28 23:55:00,72.5,31.5,28.16,South,180,1.1,0.0,22,0.00,CLR,SKC,0.00,WeatherDisplay:10.37,2013-05-29 03:55:00,
2013-05-28 23:56:00,72.5,31.5,28.16,SE,135,0.0,0.0,22,0.00,CLR,SKC,0.00,WeatherDisplay:10.37,2013-05-29 03:56:00,
2013-05-28 23:58:00,72.5,31.5,28.16,SE,135,0.0,0.0,22,0.00,CLR,SKC,0.00,WeatherDisplay:10.37,2013-05-29 03:58:00,
2013-05-28 23:59:00,72.5,31.5,28.16,SE,135,0.0,0.0,22,0.00,CLR,SKC,0.00,WeatherDisplay:10.37,2013-05-29 03:59:00,